1000 dernières valeurs brutes
Date Temp Humidity Gust Pressure Rain
28 mai 22:12 15.8°C 42% 7.9 km/h N 1012.2 hPa 0 mm
28 mai 22:11 15.8°C 42% 6.3 km/h E 1012.2 hPa 0 mm
28 mai 22:10 15.8°C 42% 7.9 km/h NE 1012.2 hPa 0 mm
28 mai 22:09 15.9°C 42% 7.9 km/h NE 1012.2 hPa 0 mm
28 mai 22:08 16.0°C 42% 5.3 km/h NE 1012.2 hPa 0 mm
28 mai 22:07 16.0°C 42% 8.4 km/h N 1012.1 hPa 0 mm
28 mai 22:06 15.9°C 42% 13.7 km/h NE 1012.1 hPa 0 mm
28 mai 22:05 16.0°C 42% 10.0 km/h SE 1012.1 hPa 0 mm
28 mai 22:04 15.9°C 42% 11.1 km/h NE 1012.1 hPa 0 mm
28 mai 22:03 15.9°C 42% 10.0 km/h E 1012.1 hPa 0 mm
28 mai 22:02 15.9°C 42% 10.0 km/h ENE 1012.1 hPa 0 mm
28 mai 22:01 15.8°C 42% 11.1 km/h NE 1012.1 hPa 0 mm
28 mai 22:00 15.8°C 42% 13.2 km/h ENE 1012.1 hPa 0 mm
28 mai 21:59 15.8°C 42% 15.8 km/h E 1012.1 hPa 0 mm
28 mai 21:58 15.8°C 42% 7.9 km/h NE 1012.1 hPa 0 mm
28 mai 21:57 15.8°C 42% 7.4 km/h E 1012.1 hPa 0 mm
28 mai 21:56 15.9°C 42% 11.6 km/h N 1012.1 hPa 0 mm
28 mai 21:55 15.9°C 42% 10.0 km/h ENE 1012.1 hPa 0 mm
28 mai 21:54 15.9°C 42% 10.0 km/h SSE 1012.1 hPa 0 mm
28 mai 21:53 15.9°C 42% 10.6 km/h E 1012.1 hPa 0 mm
28 mai 21:52 16.0°C 41% 9.5 km/h SE 1012.1 hPa 0 mm
28 mai 21:51 16.0°C 41% 10.0 km/h ENE 1012.1 hPa 0 mm
28 mai 21:50 16.0°C 41% 9.0 km/h ENE 1012.1 hPa 0 mm
28 mai 21:49 16.0°C 41% 10.0 km/h ENE 1012.1 hPa 0 mm
28 mai 21:48 16.0°C 41% 10.0 km/h NE 1012.1 hPa 0 mm
28 mai 21:47 16.0°C 41% 10.0 km/h NE 1012.1 hPa 0 mm
28 mai 21:46 16.1°C 41% 10.0 km/h NE 1012.1 hPa 0 mm
28 mai 21:45 16.1°C 41% 9.0 km/h NNE 1012.1 hPa 0 mm
28 mai 21:44 16.1°C 41% 17.4 km/h NNE 1012.1 hPa 0 mm
28 mai 21:43 16.2°C 41% 9.5 km/h NE 1012.1 hPa 0 mm
28 mai 21:42 16.2°C 41% 6.9 km/h NNE 1012.1 hPa 0 mm
28 mai 21:41 16.2°C 41% 12.7 km/h NE 1012.1 hPa 0 mm
28 mai 21:40 16.1°C 41% 14.2 km/h E 1012.1 hPa 0 mm
28 mai 21:39 16.2°C 41% 13.7 km/h E 1012.0 hPa 0 mm
28 mai 21:38 16.3°C 40% 7.4 km/h NE 1012.1 hPa 0 mm
28 mai 21:37 16.3°C 40% 7.9 km/h NE 1012.0 hPa 0 mm
28 mai 21:36 16.4°C 40% 7.9 km/h SE 1012.0 hPa 0 mm
28 mai 21:35 16.3°C 40% 10.6 km/h ENE 1012.1 hPa 0 mm
28 mai 21:34 16.4°C 40% 9.0 km/h NE 1012.1 hPa 0 mm
28 mai 21:33 16.4°C 40% 13.7 km/h ESE 1012.1 hPa 0 mm
28 mai 21:32 16.4°C 40% 13.7 km/h E 1012.0 hPa 0 mm
28 mai 21:31 16.5°C 40% 6.3 km/h ENE 1012.1 hPa 0 mm
28 mai 21:30 16.5°C 40% 10.6 km/h N 1012.0 hPa 0 mm
28 mai 21:29 16.5°C 40% 9.0 km/h ENE 1012.1 hPa 0 mm
28 mai 21:28 16.4°C 40% 10.6 km/h NE 1012.0 hPa 0 mm
28 mai 21:27 16.4°C 41% 9.0 km/h NE 1012.0 hPa 0 mm
28 mai 21:26 16.5°C 40% 11.6 km/h E 1012.0 hPa 0 mm
28 mai 21:25 16.4°C 41% 12.1 km/h ENE 1012.1 hPa 0 mm
28 mai 21:24 16.6°C 40% 8.4 km/h E 1012.0 hPa 0 mm
28 mai 21:23 16.5°C 41% 6.3 km/h NE 1012.0 hPa 0 mm
28 mai 21:22 16.6°C 40% 7.9 km/h NE 1012.0 hPa 0 mm
28 mai 21:21 16.6°C 40% 11.6 km/h NNE 1012.0 hPa 0 mm
28 mai 21:20 16.7°C 40% 12.1 km/h E 1012.0 hPa 0 mm
28 mai 21:19 16.7°C 40% 11.6 km/h ENE 1012.0 hPa 0 mm
28 mai 21:18 16.7°C 40% 12.1 km/h NNE 1012.0 hPa 0 mm
28 mai 21:17 16.8°C 40% 13.7 km/h ESE 1012.0 hPa 0 mm
28 mai 21:16 16.8°C 40% 10.0 km/h E 1012.0 hPa 0 mm
28 mai 21:15 16.8°C 40% 8.4 km/h NE 1012.0 hPa 0 mm
28 mai 21:14 16.9°C 40% 11.6 km/h ENE 1012.0 hPa 0 mm
28 mai 21:13 16.9°C 40% 13.2 km/h E 1012.0 hPa 0 mm
28 mai 21:12 16.9°C 40% 13.7 km/h NE 1012.0 hPa 0 mm
28 mai 21:11 16.9°C 40% 20.6 km/h ENE 1012.0 hPa 0 mm
28 mai 21:10 16.9°C 40% 18.5 km/h ENE 1012.0 hPa 0 mm
28 mai 21:09 17.0°C 40% 15.3 km/h SE 1012.0 hPa 0 mm
28 mai 21:08 17.0°C 40% 11.1 km/h NE 1012.0 hPa 0 mm
28 mai 21:07 17.0°C 40% 8.4 km/h ENE 1012.0 hPa 0 mm
28 mai 21:06 17.0°C 41% 14.2 km/h ENE 1012.0 hPa 0 mm
28 mai 21:05 17.0°C 41% 12.7 km/h NE 1012.0 hPa 0 mm
28 mai 21:04 17.1°C 41% 17.4 km/h SE 1012.0 hPa 0 mm
28 mai 21:03 17.2°C 40% 11.6 km/h NE 1012.0 hPa 0 mm
28 mai 21:02 17.2°C 40% 10.0 km/h ENE 1012.0 hPa 0 mm
28 mai 21:01 17.3°C 40% 11.1 km/h NNE 1012.0 hPa 0 mm
28 mai 21:00 17.3°C 40% 12.7 km/h NE 1012.0 hPa 0 mm
28 mai 20:59 17.3°C 40% 14.2 km/h E 1012.0 hPa 0 mm
28 mai 20:58 17.3°C 40% 16.4 km/h NE 1012.1 hPa 0 mm
28 mai 20:57 17.2°C 40% 17.4 km/h NE 1012.1 hPa 0 mm
28 mai 20:56 17.2°C 40% 9.0 km/h NE 1012.1 hPa 0 mm
28 mai 20:55 17.3°C 40% 13.7 km/h ENE 1012.1 hPa 0 mm
28 mai 20:54 17.2°C 40% 16.4 km/h NNE 1012.1 hPa 0 mm
28 mai 20:53 17.2°C 40% 11.1 km/h NE 1012.1 hPa 0 mm
28 mai 20:52 17.3°C 40% 9.5 km/h ENE 1012.1 hPa 0 mm
28 mai 20:51 17.3°C 40% 11.1 km/h E 1012.1 hPa 0 mm
28 mai 20:50 17.4°C 40% 9.5 km/h ENE 1012.1 hPa 0 mm
28 mai 20:49 17.4°C 40% 10.6 km/h NE 1012.1 hPa 0 mm
28 mai 20:48 17.4°C 40% 12.7 km/h NNE 1012.1 hPa 0 mm
28 mai 20:47 17.4°C 40% 14.8 km/h NE 1012.1 hPa 0 mm
28 mai 20:46 17.4°C 40% 14.2 km/h NNE 1012.1 hPa 0 mm
28 mai 20:45 17.4°C 40% 10.0 km/h NE 1012.1 hPa 0 mm
28 mai 20:44 17.4°C 40% 9.0 km/h NE 1012.1 hPa 0 mm
28 mai 20:43 17.5°C 39% 15.3 km/h NE 1012.1 hPa 0 mm
28 mai 20:42 17.5°C 39% 19.5 km/h E 1012.1 hPa 0 mm
28 mai 20:41 17.6°C 39% 14.8 km/h ENE 1012.1 hPa 0 mm
28 mai 20:40 17.6°C 39% 11.6 km/h NE 1012.1 hPa 0 mm
28 mai 20:39 17.6°C 39% 11.1 km/h E 1012.0 hPa 0 mm
28 mai 20:38 17.6°C 39% 13.7 km/h NE 1012.0 hPa 0 mm
28 mai 20:37 17.8°C 39% 13.7 km/h SE 1012.0 hPa 0 mm
28 mai 20:36 17.8°C 39% 12.1 km/h ENE 1012.0 hPa 0 mm
28 mai 20:35 17.8°C 39% 7.9 km/h NNE 1012.0 hPa 0 mm
28 mai 20:34 17.8°C 39% 12.1 km/h N 1012.0 hPa 0 mm
28 mai 20:33 17.8°C 39% 11.1 km/h ENE 1012.0 hPa 0 mm
28 mai 20:32 17.9°C 39% 12.1 km/h ENE 1012.0 hPa 0 mm
28 mai 20:31 17.9°C 39% 15.3 km/h E 1012.1 hPa 0 mm
28 mai 20:30 17.9°C 39% 14.2 km/h NE 1012.1 hPa 0 mm
28 mai 20:29 18.0°C 39% 11.6 km/h ENE 1012.1 hPa 0 mm
28 mai 20:28 18.0°C 39% 12.7 km/h ENE 1012.1 hPa 0 mm
28 mai 20:27 18.1°C 38% 11.1 km/h ESE 1012.1 hPa 0 mm
28 mai 20:26 18.1°C 39% 19.0 km/h NNE 1012.1 hPa 0 mm
28 mai 20:25 18.1°C 39% 12.7 km/h NE 1012.1 hPa 0 mm
28 mai 20:24 18.1°C 39% 12.7 km/h NNE 1012.1 hPa 0 mm
28 mai 20:23 18.1°C 39% 10.6 km/h NNE 1012.1 hPa 0 mm
28 mai 20:22 18.1°C 39% 6.9 km/h NE 1012.1 hPa 0 mm
28 mai 20:21 18.2°C 39% 9.0 km/h NE 1012.1 hPa 0 mm
28 mai 20:20 18.2°C 39% 7.9 km/h NNE 1012.1 hPa 0 mm
28 mai 20:19 18.2°C 39% 11.6 km/h N 1012.1 hPa 0 mm
28 mai 20:18 18.2°C 39% 16.4 km/h NNE 1012.1 hPa 0 mm
28 mai 20:17 18.2°C 39% 14.2 km/h ESE 1012.1 hPa 0 mm
28 mai 20:16 18.2°C 39% 16.4 km/h NNE 1012.1 hPa 0 mm
28 mai 20:15 18.2°C 39% 18.5 km/h NNE 1012.1 hPa 0 mm
28 mai 20:14 18.2°C 39% 17.4 km/h E 1012.1 hPa 0 mm
28 mai 20:13 18.2°C 39% 17.9 km/h NNE 1012.1 hPa 0 mm
28 mai 20:12 18.3°C 39% 13.2 km/h ENE 1012.1 hPa 0 mm
28 mai 20:11 18.3°C 39% 16.4 km/h ESE 1012.1 hPa 0 mm
28 mai 20:10 18.3°C 39% 15.8 km/h ENE 1012.1 hPa 0 mm
28 mai 20:09 18.3°C 39% 15.3 km/h NE 1012.2 hPa 0 mm
28 mai 20:08 18.3°C 39% 19.0 km/h SE 1012.1 hPa 0 mm
28 mai 20:07 18.4°C 39% 16.4 km/h NNE 1012.2 hPa 0 mm
28 mai 20:06 18.4°C 39% 13.7 km/h SE 1012.2 hPa 0 mm
28 mai 20:05 18.4°C 39% 17.9 km/h NNE 1012.2 hPa 0 mm
28 mai 20:04 18.5°C 39% 15.8 km/h NE 1012.2 hPa 0 mm
28 mai 20:03 18.5°C 39% 16.4 km/h E 1012.1 hPa 0 mm
28 mai 20:02 18.5°C 39% 17.9 km/h NNE 1012.2 hPa 0 mm
28 mai 20:01 18.6°C 39% 15.3 km/h ENE 1012.2 hPa 0 mm
28 mai 20:00 18.6°C 39% 14.2 km/h ENE 1012.2 hPa 0 mm
28 mai 19:59 18.7°C 39% 13.2 km/h NE 1012.2 hPa 0 mm
28 mai 19:58 18.7°C 39% 14.8 km/h ENE 1012.2 hPa 0 mm
28 mai 19:57 18.7°C 38% 13.2 km/h NNE 1012.2 hPa 0 mm
28 mai 19:56 18.7°C 39% 13.7 km/h ENE 1012.2 hPa 0 mm
28 mai 19:55 18.7°C 38% 17.4 km/h NNE 1012.2 hPa 0 mm
28 mai 19:54 18.8°C 38% 13.2 km/h NE 1012.2 hPa 0 mm
28 mai 19:53 18.8°C 38% 17.4 km/h NE 1012.2 hPa 0 mm
28 mai 19:52 18.8°C 38% 21.6 km/h NE 1012.2 hPa 0 mm
28 mai 19:51 18.9°C 38% 19.0 km/h NNE 1012.2 hPa 0 mm
28 mai 19:50 18.9°C 38% 12.7 km/h NNE 1012.1 hPa 0 mm
28 mai 19:49 18.9°C 38% 19.5 km/h ENE 1012.1 hPa 0 mm
28 mai 19:48 18.9°C 37% 12.7 km/h N 1012.2 hPa 0 mm
28 mai 19:47 19.0°C 38% 13.7 km/h NNE 1012.1 hPa 0 mm
28 mai 19:46 19.0°C 38% 11.6 km/h NNE 1012.1 hPa 0 mm
28 mai 19:45 19.0°C 38% 11.6 km/h ENE 1012.1 hPa 0 mm
28 mai 19:44 19.0°C 37% 9.5 km/h NE 1012.1 hPa 0 mm
28 mai 19:43 19.1°C 37% 15.8 km/h ENE 1012.1 hPa 0 mm
28 mai 19:42 19.1°C 37% 12.7 km/h NE 1012.1 hPa 0 mm
28 mai 19:41 19.1°C 38% 16.4 km/h ENE 1012.1 hPa 0 mm
28 mai 19:40 19.0°C 37% 12.1 km/h ENE 1012.1 hPa 0 mm
28 mai 19:39 19.0°C 38% 15.3 km/h ESE 1012.0 hPa 0 mm
28 mai 19:38 19.0°C 37% 13.2 km/h E 1012.0 hPa 0 mm
28 mai 19:37 19.0°C 38% 15.3 km/h E 1012.0 hPa 0 mm
28 mai 19:36 19.0°C 37% 17.9 km/h NE 1012.0 hPa 0 mm
28 mai 19:35 19.1°C 37% 19.5 km/h E 1012.0 hPa 0 mm
28 mai 19:34 19.1°C 37% 19.5 km/h ENE 1012.1 hPa 0 mm
28 mai 19:33 19.1°C 37% 13.7 km/h ESE 1012.1 hPa 0 mm
28 mai 19:32 19.3°C 37% 23.8 km/h SE 1012.1 hPa 0 mm
28 mai 19:31 19.3°C 37% 12.7 km/h E 1012.1 hPa 0 mm
28 mai 19:30 19.3°C 37% 14.2 km/h NNE 1012.0 hPa 0 mm
28 mai 19:29 19.4°C 37% 14.8 km/h NE 1012.1 hPa 0 mm
28 mai 19:28 19.4°C 37% 14.8 km/h N 1012.1 hPa 0 mm
28 mai 19:27 19.4°C 36% 16.9 km/h NNE 1012.1 hPa 0 mm
28 mai 19:26 19.6°C 36% 21.6 km/h E 1012.0 hPa 0 mm
28 mai 19:25 19.6°C 37% 30.6 km/h SE 1012.0 hPa 0 mm
28 mai 19:24 19.6°C 36% 29.6 km/h E 1012.0 hPa 0 mm
28 mai 19:23 19.7°C 37% 20.6 km/h NE 1012.0 hPa 0 mm
28 mai 19:22 19.7°C 37% 27.4 km/h ENE 1012.1 hPa 0 mm
28 mai 19:21 19.6°C 37% 28.0 km/h ENE 1012.0 hPa 0 mm
28 mai 19:20 19.6°C 37% 24.8 km/h E 1012.1 hPa 0 mm
28 mai 19:19 19.6°C 37% 26.9 km/h N 1012.1 hPa 0 mm
28 mai 19:18 19.6°C 37% 26.4 km/h SE 1012.1 hPa 0 mm
28 mai 19:17 19.6°C 36% 25.3 km/h E 1012.0 hPa 0 mm
28 mai 19:16 19.7°C 36% 25.9 km/h E 1012.1 hPa 0 mm
28 mai 19:15 19.7°C 36% 19.5 km/h NE 1012.0 hPa 0 mm
28 mai 19:14 19.8°C 37% 17.9 km/h ENE 1012.1 hPa 0 mm
28 mai 19:13 19.8°C 37% 18.5 km/h ENE 1012.0 hPa 0 mm
28 mai 19:12 19.9°C 36% 25.3 km/h N 1012.0 hPa 0 mm
28 mai 19:11 20.0°C 37% 26.9 km/h NE 1012.0 hPa 0 mm
28 mai 19:10 20.1°C 36% 20.6 km/h ESE 1012.0 hPa 0 mm
28 mai 19:09 20.2°C 37% 14.8 km/h NE 1012.0 hPa 0 mm
28 mai 19:08 20.2°C 37% 15.3 km/h N 1012.0 hPa 0 mm
28 mai 19:07 20.2°C 37% 11.1 km/h ENE 1012.0 hPa 0 mm
28 mai 19:06 20.3°C 37% 11.1 km/h ENE 1012.0 hPa 0 mm
28 mai 19:05 20.3°C 37% 16.4 km/h ENE 1012.0 hPa 0 mm
28 mai 19:04 20.3°C 38% 11.1 km/h ESE 1012.0 hPa 0 mm
28 mai 19:03 20.2°C 37% 10.0 km/h NNE 1012.0 hPa 0 mm
28 mai 19:02 20.1°C 37% 7.4 km/h ESE 1012.0 hPa 0 mm
28 mai 19:01 20.1°C 37% 17.9 km/h ENE 1012.0 hPa 0 mm
28 mai 19:00 20.1°C 36% 14.2 km/h NNE 1012.0 hPa 0 mm
28 mai 18:59 20.1°C 37% 17.4 km/h NNE 1012.0 hPa 0 mm
28 mai 18:58 20.1°C 37% 14.8 km/h NNE 1012.1 hPa 0 mm
28 mai 18:57 20.0°C 37% 13.7 km/h ENE 1012.0 hPa 0 mm
28 mai 18:56 20.0°C 37% 15.3 km/h NE 1012.0 hPa 0 mm
28 mai 18:55 20.1°C 37% 14.8 km/h NE 1012.0 hPa 0 mm
28 mai 18:54 20.1°C 37% 17.9 km/h E 1012.0 hPa 0 mm
28 mai 18:53 20.0°C 37% 16.9 km/h ESE 1012.1 hPa 0 mm
28 mai 18:52 20.0°C 37% 14.8 km/h ENE 1012.0 hPa 0 mm
28 mai 18:51 20.0°C 37% 17.9 km/h NNE 1012.0 hPa 0 mm
28 mai 18:50 20.1°C 37% 19.0 km/h NE 1012.0 hPa 0 mm
28 mai 18:49 20.2°C 38% 21.1 km/h NE 1012.1 hPa 0 mm
28 mai 18:48 20.1°C 38% 13.2 km/h E 1012.1 hPa 0 mm
28 mai 18:47 20.0°C 38% 13.7 km/h E 1012.0 hPa 0 mm
28 mai 18:46 20.0°C 38% 17.4 km/h ENE 1012.1 hPa 0 mm
28 mai 18:45 20.1°C 38% 19.0 km/h ENE 1012.1 hPa 0 mm
28 mai 18:44 20.2°C 38% 15.3 km/h E 1012.1 hPa 0 mm
28 mai 18:43 20.2°C 39% 14.2 km/h ESE 1012.1 hPa 0 mm
28 mai 18:42 20.2°C 39% 13.7 km/h E 1012.1 hPa 0 mm
28 mai 18:41 20.2°C 39% 14.8 km/h NE 1012.1 hPa 0 mm
28 mai 18:40 20.3°C 38% 17.9 km/h NE 1012.1 hPa 0 mm
28 mai 18:39 20.5°C 38% 17.4 km/h NNE 1012.1 hPa 0 mm
28 mai 18:38 20.6°C 38% 22.7 km/h ESE 1012.1 hPa 0 mm
28 mai 18:37 20.6°C 38% 14.2 km/h ENE 1012.1 hPa 0 mm
28 mai 18:36 20.6°C 38% 15.3 km/h S 1012.1 hPa 0 mm
28 mai 18:35 20.6°C 37% 16.4 km/h ESE 1012.1 hPa 0 mm
28 mai 18:34 20.6°C 37% 21.1 km/h ESE 1012.1 hPa 0 mm
28 mai 18:33 20.6°C 37% 13.2 km/h ENE 1012.1 hPa 0 mm
28 mai 18:32 20.7°C 37% 22.2 km/h SE 1012.1 hPa 0 mm
28 mai 18:31 20.8°C 38% 19.0 km/h ESE 1012.1 hPa 0 mm
28 mai 18:30 20.7°C 38% 12.7 km/h S 1012.1 hPa 0 mm
28 mai 18:29 20.7°C 38% 14.2 km/h E 1012.1 hPa 0 mm
28 mai 18:28 20.7°C 37% 12.1 km/h E 1012.1 hPa 0 mm
28 mai 18:27 20.8°C 37% 11.6 km/h NE 1012.2 hPa 0 mm
28 mai 18:26 20.8°C 38% 16.9 km/h ENE 1012.2 hPa 0 mm
28 mai 18:25 20.8°C 38% 14.2 km/h NNE 1012.2 hPa 0 mm
28 mai 18:24 20.8°C 37% 14.8 km/h E 1012.2 hPa 0 mm
28 mai 18:23 20.8°C 37% 14.8 km/h NE 1012.2 hPa 0 mm
28 mai 18:22 21.0°C 38% 13.7 km/h NNE 1012.2 hPa 0 mm
28 mai 18:21 20.9°C 38% 13.2 km/h NE 1012.2 hPa 0 mm
28 mai 18:20 20.8°C 38% 12.7 km/h E 1012.2 hPa 0 mm
28 mai 18:19 20.8°C 38% 17.4 km/h NE 1012.2 hPa 0 mm
28 mai 18:18 20.8°C 38% 15.8 km/h ENE 1012.2 hPa 0 mm
28 mai 18:17 20.6°C 38% 18.5 km/h E 1012.3 hPa 0 mm
28 mai 18:16 20.7°C 38% 17.4 km/h ENE 1012.3 hPa 0 mm
28 mai 18:15 20.6°C 38% 16.9 km/h NNE 1012.3 hPa 0 mm
28 mai 18:14 20.7°C 38% 15.8 km/h ENE 1012.2 hPa 0 mm
28 mai 18:13 20.9°C 38% 19.5 km/h NNE 1012.2 hPa 0 mm
28 mai 18:12 20.9°C 38% 16.4 km/h N 1012.2 hPa 0 mm
28 mai 18:11 21.1°C 38% 17.4 km/h NNE 1012.2 hPa 0 mm
28 mai 18:10 21.1°C 38% 16.4 km/h NNE 1012.2 hPa 0 mm
28 mai 18:09 21.2°C 39% 13.2 km/h ENE 1012.2 hPa 0 mm
28 mai 18:08 21.2°C 39% 15.8 km/h NE 1012.2 hPa 0 mm
28 mai 18:07 20.9°C 39% 16.4 km/h E 1012.2 hPa 0 mm
28 mai 18:06 20.9°C 38% 20.6 km/h E 1012.2 hPa 0 mm
28 mai 18:05 20.8°C 39% 17.4 km/h ESE 1012.2 hPa 0 mm
28 mai 18:04 21.0°C 38% 22.7 km/h ENE 1012.2 hPa 0 mm
28 mai 18:03 21.1°C 38% 16.4 km/h ESE 1012.2 hPa 0 mm
28 mai 18:02 21.1°C 39% 21.1 km/h SSE 1012.2 hPa 0 mm
28 mai 18:01 21.0°C 39% 11.1 km/h E 1012.2 hPa 0 mm
28 mai 18:00 21.0°C 38% 20.1 km/h ESE 1012.2 hPa 0 mm
28 mai 17:59 20.9°C 39% 20.1 km/h NE 1012.2 hPa 0 mm
28 mai 17:58 20.8°C 38% 16.4 km/h SE 1012.2 hPa 0 mm
28 mai 17:57 20.8°C 38% 23.2 km/h ENE 1012.3 hPa 0 mm
28 mai 17:56 20.7°C 38% 14.8 km/h ENE 1012.2 hPa 0 mm
28 mai 17:55 20.9°C 38% 25.3 km/h NNE 1012.2 hPa 0 mm
28 mai 17:54 21.0°C 38% 19.0 km/h NNE 1012.2 hPa 0 mm
28 mai 17:53 21.1°C 38% 19.0 km/h ENE 1012.2 hPa 0 mm
28 mai 17:52 21.1°C 37% 18.5 km/h N 1012.3 hPa 0 mm
28 mai 17:51 21.0°C 38% 16.4 km/h ENE 1012.2 hPa 0 mm
28 mai 17:50 20.9°C 37% 18.5 km/h SE 1012.2 hPa 0 mm
28 mai 17:49 20.8°C 37% 17.4 km/h ENE 1012.3 hPa 0 mm
28 mai 17:48 21.3°C 37% 25.9 km/h NE 1012.3 hPa 0 mm
28 mai 17:48 21.1°C 37% 20.1 km/h E 1012.3 hPa 0 mm
28 mai 17:47 21.2°C 37% 21.6 km/h NNE 1012.3 hPa 0 mm
28 mai 17:46 21.1°C 37% 14.2 km/h NE 1012.3 hPa 0 mm
28 mai 17:45 21.2°C 37% 18.5 km/h SSE 1012.2 hPa 0 mm
28 mai 17:44 21.0°C 37% 21.6 km/h NE 1012.3 hPa 0 mm
28 mai 17:43 21.1°C 38% 18.5 km/h NNE 1012.3 hPa 0 mm
28 mai 17:42 21.1°C 37% 13.7 km/h ENE 1012.3 hPa 0 mm
28 mai 17:41 21.2°C 37% 22.2 km/h NE 1012.3 hPa 0 mm
28 mai 17:40 21.3°C 37% 19.5 km/h NNE 1012.3 hPa 0 mm
28 mai 17:39 21.3°C 38% 14.2 km/h N 1012.3 hPa 0 mm
28 mai 17:38 21.1°C 38% 17.4 km/h NE 1012.3 hPa 0 mm
28 mai 17:37 21.0°C 38% 9.5 km/h NE 1012.3 hPa 0 mm
28 mai 17:36 21.0°C 38% 15.3 km/h NE 1012.3 hPa 0 mm
28 mai 17:35 21.1°C 38% 32.2 km/h NE 1012.4 hPa 0 mm
28 mai 17:34 21.1°C 38% 19.0 km/h NE 1012.3 hPa 0 mm
28 mai 17:33 21.2°C 37% 22.2 km/h NE 1012.3 hPa 0 mm
28 mai 17:32 21.3°C 37% 23.8 km/h NE 1012.3 hPa 0 mm
28 mai 17:31 21.6°C 38% 16.9 km/h NE 1012.4 hPa 0 mm
28 mai 17:30 21.8°C 38% 22.7 km/h ENE 1012.4 hPa 0 mm
28 mai 17:29 21.9°C 38% 15.8 km/h NE 1012.4 hPa 0 mm
28 mai 17:28 21.9°C 38% 16.4 km/h NE 1012.4 hPa 0 mm
28 mai 17:27 21.8°C 38% 21.1 km/h NE 1012.3 hPa 0 mm
28 mai 17:26 21.6°C 38% 22.2 km/h E 1012.3 hPa 0 mm
28 mai 17:25 21.6°C 38% 19.5 km/h NE 1012.3 hPa 0 mm
28 mai 17:24 21.6°C 38% 18.5 km/h ESE 1012.4 hPa 0 mm
28 mai 17:23 21.6°C 38% 18.5 km/h NE 1012.4 hPa 0 mm
28 mai 17:22 21.7°C 38% 21.6 km/h SSE 1012.3 hPa 0 mm
28 mai 17:21 21.8°C 38% 20.1 km/h E 1012.4 hPa 0 mm
28 mai 17:20 21.9°C 38% 16.4 km/h NE 1012.4 hPa 0 mm
28 mai 17:19 21.9°C 39% 11.6 km/h ENE 1012.4 hPa 0 mm
28 mai 17:18 21.9°C 38% 13.7 km/h NNE 1012.4 hPa 0 mm
28 mai 17:17 22.0°C 39% 14.8 km/h NNE 1012.4 hPa 0 mm
28 mai 17:16 22.1°C 39% 17.4 km/h ENE 1012.4 hPa 0 mm
28 mai 17:15 21.9°C 39% 16.9 km/h E 1012.4 hPa 0 mm
28 mai 17:14 21.6°C 39% 20.1 km/h ESE 1012.4 hPa 0 mm
28 mai 17:13 21.4°C 39% 19.0 km/h ESE 1012.4 hPa 0 mm
28 mai 17:12 21.2°C 38% 23.8 km/h ENE 1012.5 hPa 0 mm
28 mai 17:11 21.6°C 38% 24.8 km/h ESE 1012.4 hPa 0 mm
28 mai 17:10 21.8°C 39% 16.9 km/h ESE 1012.5 hPa 0 mm
28 mai 17:09 21.8°C 39% 17.9 km/h SE 1012.5 hPa 0 mm
28 mai 17:08 21.9°C 39% 24.3 km/h ESE 1012.5 hPa 0 mm
28 mai 17:07 21.8°C 39% 16.4 km/h E 1012.4 hPa 0 mm
28 mai 17:06 22.2°C 38% 23.2 km/h E 1012.4 hPa 0 mm
28 mai 17:05 22.0°C 40% 14.8 km/h E 1012.5 hPa 0 mm
28 mai 17:04 21.7°C 40% 13.7 km/h NE 1012.5 hPa 0 mm
28 mai 17:03 21.6°C 40% 11.1 km/h NE 1012.5 hPa 0 mm
28 mai 17:02 21.5°C 40% 12.1 km/h ENE 1012.5 hPa 0 mm
28 mai 17:01 21.3°C 40% 21.6 km/h NNE 1012.6 hPa 0 mm
28 mai 17:00 21.5°C 40% 20.6 km/h NE 1012.6 hPa 0 mm
28 mai 16:59 21.6°C 40% 23.2 km/h NE 1012.6 hPa 0 mm
28 mai 16:58 21.7°C 41% 13.7 km/h NNE 1012.6 hPa 0 mm
28 mai 16:57 21.8°C 40% 16.4 km/h NE 1012.5 hPa 0 mm
28 mai 16:56 22.1°C 40% 15.3 km/h NE 1012.6 hPa 0 mm
28 mai 16:55 22.1°C 40% 13.2 km/h NE 1012.5 hPa 0 mm
28 mai 16:54 21.9°C 41% 13.2 km/h NNE 1012.5 hPa 0 mm
28 mai 16:53 21.9°C 40% 17.4 km/h NE 1012.6 hPa 0 mm
28 mai 16:52 22.2°C 40% 18.5 km/h NNE 1012.5 hPa 0 mm
28 mai 16:51 22.3°C 40% 19.0 km/h ESE 1012.5 hPa 0 mm
28 mai 16:50 22.3°C 40% 19.5 km/h SE 1012.5 hPa 0 mm
28 mai 16:49 22.3°C 39% 20.1 km/h SE 1012.5 hPa 0 mm
28 mai 16:48 22.3°C 39% 17.9 km/h E 1012.5 hPa 0 mm
28 mai 16:47 22.3°C 40% 15.8 km/h SE 1012.5 hPa 0 mm
28 mai 16:46 22.2°C 40% 15.8 km/h ENE 1012.5 hPa 0 mm
28 mai 16:45 22.2°C 40% 22.7 km/h E 1012.5 hPa 0 mm
28 mai 16:44 22.1°C 40% 16.4 km/h ESE 1012.5 hPa 0 mm
28 mai 16:43 21.8°C 41% 17.9 km/h E 1012.6 hPa 0 mm
28 mai 16:42 21.7°C 40% 31.7 km/h E 1012.6 hPa 0 mm
28 mai 16:41 21.6°C 40% 23.2 km/h SE 1012.6 hPa 0 mm
28 mai 16:40 21.6°C 40% 20.6 km/h NE 1012.6 hPa 0 mm
28 mai 16:39 22.0°C 40% 20.6 km/h NNE 1012.6 hPa 0 mm
28 mai 16:38 21.9°C 40% 20.1 km/h SE 1012.6 hPa 0 mm
28 mai 16:37 21.8°C 41% 20.1 km/h ESE 1012.6 hPa 0 mm
28 mai 16:36 21.6°C 40% 15.3 km/h NNE 1012.6 hPa 0 mm
28 mai 16:35 21.9°C 39% 16.9 km/h NNE 1012.6 hPa 0 mm
28 mai 16:34 22.2°C 39% 23.2 km/h ENE 1012.6 hPa 0 mm
28 mai 16:33 22.4°C 40% 13.7 km/h NNE 1012.5 hPa 0 mm
28 mai 16:32 22.4°C 40% 20.6 km/h NE 1012.5 hPa 0 mm
28 mai 16:31 22.4°C 40% 15.3 km/h E 1012.5 hPa 0 mm
28 mai 16:30 22.3°C 40% 15.8 km/h E 1012.5 hPa 0 mm
28 mai 16:29 22.2°C 41% 17.9 km/h E 1012.5 hPa 0 mm
28 mai 16:28 22.1°C 40% 16.4 km/h E 1012.6 hPa 0 mm
28 mai 16:27 22.1°C 40% 17.9 km/h ESE 1012.6 hPa 0 mm
28 mai 16:26 21.9°C 41% 12.1 km/h ENE 1012.7 hPa 0 mm
28 mai 16:25 21.7°C 40% 14.8 km/h E 1012.7 hPa 0 mm
28 mai 16:24 21.6°C 40% 19.0 km/h NE 1012.7 hPa 0 mm
28 mai 16:23 21.6°C 40% 14.8 km/h NE 1012.8 hPa 0 mm
28 mai 16:22 21.7°C 40% 22.2 km/h NE 1012.7 hPa 0 mm
28 mai 16:21 21.9°C 40% 16.9 km/h NE 1012.7 hPa 0 mm
28 mai 16:20 22.0°C 40% 21.1 km/h E 1012.7 hPa 0 mm
28 mai 16:19 21.9°C 40% 15.3 km/h ENE 1012.7 hPa 0 mm
28 mai 16:18 22.0°C 40% 19.0 km/h ESE 1012.8 hPa 0 mm
28 mai 16:17 22.1°C 40% 21.6 km/h NE 1012.7 hPa 0 mm
28 mai 16:16 22.2°C 41% 18.5 km/h E 1012.7 hPa 0 mm
28 mai 16:15 22.1°C 40% 16.9 km/h ENE 1012.7 hPa 0 mm
28 mai 16:14 22.4°C 39% 17.9 km/h NE 1012.7 hPa 0 mm
28 mai 16:13 22.7°C 40% 19.0 km/h NE 1012.7 hPa 0 mm
28 mai 16:12 22.8°C 40% 19.0 km/h S 1012.7 hPa 0 mm
28 mai 16:11 22.9°C 40% 17.4 km/h ESE 1012.6 hPa 0 mm
28 mai 16:10 23.0°C 40% 10.6 km/h NE 1012.7 hPa 0 mm
28 mai 16:09 23.0°C 41% 11.6 km/h NNE 1012.7 hPa 0 mm
28 mai 16:08 22.8°C 42% 10.0 km/h E 1012.7 hPa 0 mm
28 mai 16:07 22.4°C 41% 11.1 km/h E 1012.7 hPa 0 mm
28 mai 16:06 22.4°C 41% 18.5 km/h E 1012.8 hPa 0 mm
28 mai 16:05 22.5°C 41% 17.4 km/h NE 1012.8 hPa 0 mm
28 mai 16:04 22.2°C 41% 17.4 km/h ESE 1012.8 hPa 0 mm
28 mai 16:03 22.1°C 41% 19.5 km/h NE 1012.8 hPa 0 mm
28 mai 16:02 22.0°C 42% 19.5 km/h E 1012.8 hPa 0 mm
28 mai 16:01 21.9°C 41% 24.8 km/h NE 1012.8 hPa 0 mm
28 mai 16:00 22.0°C 41% 16.9 km/h NNE 1012.7 hPa 0 mm
28 mai 15:59 21.9°C 41% 24.3 km/h N 1012.8 hPa 0 mm
28 mai 15:58 22.1°C 41% 17.4 km/h NE 1012.8 hPa 0 mm
28 mai 15:57 22.1°C 41% 20.6 km/h NE 1012.8 hPa 0 mm
28 mai 15:56 21.9°C 41% 18.5 km/h ENE 1012.8 hPa 0 mm
28 mai 15:55 21.9°C 42% 10.0 km/h ENE 1012.8 hPa 0 mm
28 mai 15:54 21.9°C 41% 20.1 km/h SE 1012.8 hPa 0 mm
28 mai 15:53 22.1°C 41% 17.9 km/h ENE 1012.8 hPa 0 mm
28 mai 15:52 22.2°C 42% 16.4 km/h NE 1012.8 hPa 0 mm
28 mai 15:51 22.2°C 41% 15.3 km/h ENE 1012.8 hPa 0 mm
28 mai 15:50 22.3°C 42% 10.0 km/h NE 1012.8 hPa 0 mm
28 mai 15:49 22.2°C 42% 14.8 km/h NE 1012.9 hPa 0 mm
28 mai 15:48 22.2°C 42% 20.6 km/h E 1012.9 hPa 0 mm
28 mai 15:47 22.1°C 41% 25.3 km/h ENE 1012.8 hPa 0 mm
28 mai 15:46 22.2°C 41% 18.5 km/h NNE 1012.9 hPa 0 mm
28 mai 15:45 22.2°C 42% 20.1 km/h NE 1012.9 hPa 0 mm
28 mai 15:44 22.3°C 42% 23.8 km/h E 1012.9 hPa 0 mm
28 mai 15:43 22.3°C 41% 23.8 km/h E 1012.9 hPa 0 mm
28 mai 15:42 22.2°C 43% 22.2 km/h S 1012.9 hPa 0 mm
28 mai 15:41 22.0°C 41% 15.3 km/h N 1012.9 hPa 0 mm
28 mai 15:40 22.3°C 41% 17.9 km/h E 1013.0 hPa 0 mm
28 mai 15:39 22.3°C 42% 22.2 km/h S 1013.0 hPa 0 mm
28 mai 15:38 22.3°C 42% 19.0 km/h SSE 1013.0 hPa 0 mm
28 mai 15:37 22.1°C 41% 26.9 km/h SE 1012.9 hPa 0 mm
28 mai 15:36 22.0°C 42% 25.9 km/h SE 1013.0 hPa 0 mm
28 mai 15:35 22.0°C 42% 25.3 km/h ESE 1013.0 hPa 0 mm
28 mai 15:34 21.8°C 43% 16.4 km/h E 1013.0 hPa 0 mm
28 mai 15:33 21.7°C 42% 20.1 km/h NNE 1013.0 hPa 0 mm
28 mai 15:32 21.8°C 42% 18.5 km/h NNE 1013.0 hPa 0 mm
28 mai 15:31 22.0°C 42% 23.2 km/h ENE 1013.1 hPa 0 mm
28 mai 15:30 22.4°C 42% 24.3 km/h E 1013.0 hPa 0 mm
28 mai 15:29 22.5°C 43% 15.8 km/h ESE 1013.0 hPa 0 mm
28 mai 15:28 22.5°C 43% 22.7 km/h E 1013.0 hPa 0 mm
28 mai 15:27 22.8°C 43% 19.0 km/h SE 1013.0 hPa 0 mm
28 mai 15:26 22.8°C 44% 21.6 km/h SE 1013.0 hPa 0 mm
28 mai 15:25 22.4°C 44% 19.0 km/h NE 1013.0 hPa 0 mm
28 mai 15:24 22.1°C 45% 18.5 km/h ESE 1013.0 hPa 0 mm
28 mai 15:23 21.8°C 44% 16.4 km/h ENE 1012.9 hPa 0 mm
28 mai 15:22 21.9°C 44% 13.7 km/h E 1013.0 hPa 0 mm
28 mai 15:21 21.7°C 44% 21.6 km/h E 1013.0 hPa 0 mm
28 mai 15:20 21.8°C 44% 14.8 km/h NE 1013.1 hPa 0 mm
28 mai 15:19 22.1°C 43% 21.6 km/h NNE 1013.1 hPa 0 mm
28 mai 15:18 22.4°C 44% 19.5 km/h N 1013.1 hPa 0 mm
28 mai 15:17 22.6°C 44% 20.6 km/h S 1013.0 hPa 0 mm
28 mai 15:16 22.3°C 45% 12.1 km/h ESE 1013.1 hPa 0 mm
28 mai 15:15 22.3°C 44% 15.3 km/h E 1013.1 hPa 0 mm
28 mai 15:14 22.4°C 44% 16.4 km/h N 1013.1 hPa 0 mm
28 mai 15:13 22.2°C 45% 11.1 km/h ENE 1013.2 hPa 0 mm
28 mai 15:12 22.0°C 45% 17.4 km/h SE 1013.1 hPa 0 mm
28 mai 15:11 21.9°C 44% 19.0 km/h ENE 1013.1 hPa 0 mm
28 mai 15:10 21.9°C 44% 20.6 km/h SSE 1013.1 hPa 0 mm
28 mai 15:09 21.9°C 45% 21.1 km/h E 1013.1 hPa 0 mm
28 mai 15:08 22.1°C 44% 18.5 km/h NE 1013.2 hPa 0 mm
28 mai 15:07 22.4°C 44% 21.1 km/h E 1013.2 hPa 0 mm
28 mai 15:06 22.4°C 45% 12.7 km/h E 1013.2 hPa 0 mm
28 mai 15:05 22.5°C 45% 13.7 km/h N 1013.2 hPa 0 mm
28 mai 15:04 22.2°C 45% 19.0 km/h ENE 1013.2 hPa 0 mm
28 mai 15:03 22.1°C 44% 15.3 km/h ENE 1013.2 hPa 0 mm
28 mai 15:02 22.2°C 45% 14.8 km/h ENE 1013.3 hPa 0 mm
28 mai 15:01 22.2°C 44% 14.2 km/h S 1013.3 hPa 0 mm
28 mai 15:00 22.4°C 44% 21.1 km/h N 1013.4 hPa 0 mm
28 mai 14:59 22.5°C 44% 16.9 km/h SE 1013.3 hPa 0 mm
28 mai 14:58 22.2°C 45% 16.4 km/h SE 1013.3 hPa 0 mm
28 mai 14:57 22.2°C 45% 20.1 km/h E 1013.4 hPa 0 mm
28 mai 14:56 22.0°C 45% 15.3 km/h E 1013.4 hPa 0 mm
28 mai 14:55 22.1°C 45% 22.2 km/h NE 1013.4 hPa 0 mm
28 mai 14:54 21.9°C 45% 20.1 km/h NNE 1013.4 hPa 0 mm
28 mai 14:53 22.0°C 45% 17.4 km/h ENE 1013.4 hPa 0 mm
28 mai 14:52 22.2°C 44% 14.8 km/h E 1013.5 hPa 0 mm
28 mai 14:51 22.5°C 45% 19.0 km/h E 1013.5 hPa 0 mm
28 mai 14:50 22.5°C 45% 18.5 km/h S 1013.5 hPa 0 mm
28 mai 14:49 22.3°C 45% 19.0 km/h NE 1013.5 hPa 0 mm
28 mai 14:48 22.0°C 45% 18.5 km/h NNE 1013.5 hPa 0 mm
28 mai 14:47 21.9°C 44% 15.8 km/h N 1013.5 hPa 0 mm
28 mai 14:46 22.2°C 44% 17.9 km/h NNE 1013.5 hPa 0 mm
28 mai 14:45 22.3°C 45% 17.4 km/h ENE 1013.5 hPa 0 mm
28 mai 14:44 22.0°C 46% 14.2 km/h NE 1013.5 hPa 0 mm
28 mai 14:43 21.7°C 45% 20.6 km/h NE 1013.5 hPa 0 mm
28 mai 14:42 21.6°C 45% 18.5 km/h NNE 1013.6 hPa 0 mm
28 mai 14:41 21.6°C 45% 16.9 km/h NE 1013.5 hPa 0 mm
28 mai 14:40 22.0°C 45% 18.5 km/h NNE 1013.6 hPa 0 mm
28 mai 14:39 22.4°C 44% 21.1 km/h NE 1013.6 hPa 0 mm
28 mai 14:38 22.3°C 45% 12.7 km/h ENE 1013.6 hPa 0 mm
28 mai 14:37 22.3°C 44% 9.0 km/h NE 1013.6 hPa 0 mm
28 mai 14:36 22.2°C 45% 21.6 km/h NE 1013.7 hPa 0 mm
28 mai 14:35 22.3°C 45% 19.5 km/h NE 1013.7 hPa 0 mm
28 mai 14:34 22.0°C 45% 12.7 km/h E 1013.6 hPa 0 mm
28 mai 14:33 21.9°C 45% 13.2 km/h NE 1013.6 hPa 0 mm
28 mai 14:32 21.8°C 45% 15.3 km/h NNE 1013.7 hPa 0 mm
28 mai 14:31 21.8°C 45% 17.9 km/h E 1013.8 hPa 0 mm
28 mai 14:30 22.0°C 46% 19.5 km/h NNE 1013.8 hPa 0 mm
28 mai 14:29 21.9°C 46% 17.4 km/h ENE 1013.7 hPa 0 mm
28 mai 14:28 22.0°C 46% 24.3 km/h NE 1013.7 hPa 0 mm
28 mai 14:27 21.9°C 46% 17.4 km/h NNE 1013.8 hPa 0 mm
28 mai 14:26 22.1°C 45% 19.0 km/h NE 1013.8 hPa 0 mm
28 mai 14:25 22.4°C 45% 17.9 km/h E 1013.8 hPa 0 mm
28 mai 14:24 22.4°C 46% 16.9 km/h ENE 1013.8 hPa 0 mm
28 mai 14:23 22.1°C 46% 22.7 km/h E 1013.8 hPa 0 mm
28 mai 14:22 22.3°C 46% 16.4 km/h E 1013.8 hPa 0 mm
28 mai 14:21 22.1°C 46% 14.8 km/h ENE 1013.9 hPa 0 mm
28 mai 14:20 22.2°C 45% 14.8 km/h NE 1013.9 hPa 0 mm
28 mai 14:19 22.4°C 46% 17.9 km/h ENE 1013.9 hPa 0 mm
28 mai 14:18 22.2°C 47% 11.1 km/h ESE 1013.9 hPa 0 mm
28 mai 14:17 22.2°C 45% 19.5 km/h N 1013.9 hPa 0 mm
28 mai 14:16 22.8°C 45% 17.9 km/h E 1013.9 hPa 0 mm
28 mai 14:15 22.4°C 46% 17.9 km/h ESE 1013.9 hPa 0 mm
28 mai 14:14 22.0°C 46% 13.7 km/h NE 1013.9 hPa 0 mm
28 mai 14:13 22.1°C 46% 17.4 km/h E 1013.9 hPa 0 mm
28 mai 14:12 22.1°C 46% 17.9 km/h NNE 1014.0 hPa 0 mm
28 mai 14:11 22.1°C 46% 11.6 km/h NE 1014.0 hPa 0 mm
28 mai 14:10 21.9°C 46% 16.9 km/h E 1013.9 hPa 0 mm
28 mai 14:09 22.0°C 45% 16.4 km/h NE 1014.0 hPa 0 mm
28 mai 14:08 22.3°C 46% 17.9 km/h ENE 1014.0 hPa 0 mm
28 mai 14:07 22.0°C 46% 21.1 km/h SSE 1014.0 hPa 0 mm
28 mai 14:06 22.0°C 46% 15.8 km/h NE 1014.1 hPa 0 mm
28 mai 14:05 22.3°C 45% 24.8 km/h SSE 1014.1 hPa 0 mm
28 mai 14:04 22.4°C 46% 22.7 km/h E 1014.1 hPa 0 mm
28 mai 14:03 22.2°C 47% 12.1 km/h ENE 1014.0 hPa 0 mm
28 mai 14:02 22.0°C 47% 12.1 km/h NE 1014.0 hPa 0 mm
28 mai 14:01 22.1°C 47% 15.3 km/h NNE 1014.0 hPa 0 mm
28 mai 14:00 21.9°C 47% 18.5 km/h ESE 1014.0 hPa 0 mm
28 mai 13:59 21.8°C 46% 21.6 km/h ENE 1014.1 hPa 0 mm
28 mai 13:58 22.3°C 46% 25.3 km/h S 1014.1 hPa 0 mm
28 mai 13:57 22.2°C 47% 26.4 km/h NE 1014.1 hPa 0 mm
28 mai 13:56 22.2°C 47% 18.5 km/h ESE 1014.1 hPa 0 mm
28 mai 13:55 22.5°C 47% 24.8 km/h ENE 1014.1 hPa 0 mm
28 mai 13:54 22.3°C 48% 24.3 km/h SSE 1014.2 hPa 0 mm
28 mai 13:53 22.0°C 48% 14.8 km/h ENE 1014.2 hPa 0 mm
28 mai 13:52 22.0°C 48% 17.9 km/h SE 1014.3 hPa 0 mm
28 mai 13:51 22.0°C 48% 17.9 km/h E 1014.2 hPa 0 mm
28 mai 13:50 22.2°C 47% 16.9 km/h ENE 1014.2 hPa 0 mm
28 mai 13:49 22.4°C 48% 14.8 km/h NNE 1014.2 hPa 0 mm
28 mai 13:48 22.4°C 48% 16.9 km/h E 1014.2 hPa 0 mm
28 mai 13:47 22.3°C 48% 17.4 km/h ESE 1014.3 hPa 0 mm
28 mai 13:46 22.3°C 48% 20.6 km/h NE 1014.3 hPa 0 mm
28 mai 13:45 22.4°C 48% 13.7 km/h NE 1014.3 hPa 0 mm
28 mai 13:44 22.4°C 48% 20.6 km/h NE 1014.3 hPa 0 mm
28 mai 13:43 22.2°C 48% 21.6 km/h NE 1014.3 hPa 0 mm
28 mai 13:42 22.1°C 49% 17.4 km/h ESE 1014.3 hPa 0 mm
28 mai 13:41 21.9°C 49% 19.0 km/h SE 1014.3 hPa 0 mm
28 mai 13:40 21.7°C 49% 19.0 km/h SE 1014.4 hPa 0 mm
28 mai 13:39 21.8°C 48% 17.9 km/h E 1014.4 hPa 0 mm
28 mai 13:38 21.9°C 48% 19.0 km/h NE 1014.4 hPa 0 mm
28 mai 13:37 21.7°C 49% 16.9 km/h ESE 1014.4 hPa 0 mm
28 mai 13:36 21.3°C 49% 20.1 km/h E 1014.4 hPa 0 mm
28 mai 13:35 21.5°C 49% 21.6 km/h NNE 1014.4 hPa 0 mm
28 mai 13:34 21.8°C 49% 21.6 km/h ESE 1014.4 hPa 0 mm
28 mai 13:33 21.8°C 49% 16.9 km/h NNE 1014.4 hPa 0 mm
28 mai 13:32 21.9°C 49% 17.9 km/h E 1014.4 hPa 0 mm
28 mai 13:31 22.0°C 48% 19.5 km/h ESE 1014.4 hPa 0 mm
28 mai 13:30 22.2°C 48% 15.3 km/h E 1014.5 hPa 0 mm
28 mai 13:29 22.2°C 49% 13.7 km/h SE 1014.4 hPa 0 mm
28 mai 13:28 22.0°C 49% 22.7 km/h SE 1014.5 hPa 0 mm
28 mai 13:27 21.7°C 49% 14.2 km/h E 1014.5 hPa 0 mm
28 mai 13:26 21.6°C 49% 20.6 km/h ENE 1014.5 hPa 0 mm
28 mai 13:25 21.4°C 49% 17.9 km/h ENE 1014.5 hPa 0 mm
28 mai 13:24 21.5°C 48% 22.2 km/h ENE 1014.6 hPa 0 mm
28 mai 13:23 21.9°C 49% 28.0 km/h NNE 1014.5 hPa 0 mm
28 mai 13:22 21.7°C 50% 14.8 km/h SSE 1014.6 hPa 0 mm
28 mai 13:21 21.5°C 50% 16.9 km/h S 1014.6 hPa 0 mm
28 mai 13:20 21.1°C 52% 16.4 km/h E 1014.5 hPa 0 mm
28 mai 13:19 21.0°C 51% 18.5 km/h NNE 1014.6 hPa 0 mm
28 mai 13:18 21.0°C 51% 15.3 km/h NE 1014.6 hPa 0 mm
28 mai 13:17 20.7°C 51% 19.0 km/h NE 1014.7 hPa 0 mm
28 mai 13:16 20.9°C 51% 21.6 km/h N 1014.7 hPa 0 mm
28 mai 13:15 21.0°C 51% 19.5 km/h NNE 1014.8 hPa 0 mm
28 mai 13:14 21.1°C 51% 23.2 km/h NNE 1014.8 hPa 0 mm
28 mai 13:13 21.0°C 52% 20.1 km/h NE 1014.8 hPa 0 mm
28 mai 13:12 21.1°C 51% 20.1 km/h NE 1014.8 hPa 0 mm
28 mai 13:11 21.0°C 52% 15.3 km/h NE 1014.8 hPa 0 mm
28 mai 13:10 21.1°C 52% 19.0 km/h ENE 1014.8 hPa 0 mm
28 mai 13:09 21.1°C 52% 16.4 km/h NNE 1014.9 hPa 0 mm
28 mai 13:08 21.0°C 51% 16.4 km/h NNE 1014.9 hPa 0 mm
28 mai 13:07 21.2°C 52% 18.5 km/h ENE 1014.9 hPa 0 mm
28 mai 13:06 21.3°C 52% 25.3 km/h ENE 1015.0 hPa 0 mm
28 mai 13:05 21.2°C 54% 23.8 km/h NE 1014.9 hPa 0 mm
28 mai 13:04 21.0°C 53% 15.3 km/h N 1014.9 hPa 0 mm
28 mai 13:03 20.9°C 52% 16.9 km/h E 1014.9 hPa 0 mm
28 mai 13:02 21.0°C 52% 17.4 km/h NNE 1014.9 hPa 0 mm
28 mai 13:01 21.1°C 54% 20.6 km/h E 1014.9 hPa 0 mm
28 mai 13:00 20.8°C 53% 21.6 km/h E 1015.0 hPa 0 mm
28 mai 12:59 20.8°C 53% 25.3 km/h NNE 1014.9 hPa 0 mm
28 mai 12:58 20.8°C 53% 21.1 km/h NNE 1014.9 hPa 0 mm
28 mai 12:57 21.1°C 53% 14.8 km/h NNE 1015.0 hPa 0 mm
28 mai 12:56 21.0°C 53% 15.8 km/h NNE 1015.0 hPa 0 mm
28 mai 12:55 21.0°C 53% 16.9 km/h NNE 1015.1 hPa 0 mm
28 mai 12:54 21.0°C 54% 17.9 km/h NE 1015.0 hPa 0 mm
28 mai 12:53 21.0°C 53% 15.8 km/h E 1015.1 hPa 0 mm
28 mai 12:52 20.9°C 53% 16.4 km/h NE 1015.1 hPa 0 mm
28 mai 12:51 20.9°C 53% 21.1 km/h ENE 1015.1 hPa 0 mm
28 mai 12:50 20.9°C 53% 12.7 km/h NNE 1015.1 hPa 0 mm
28 mai 12:49 20.8°C 54% 16.4 km/h ESE 1015.1 hPa 0 mm
28 mai 12:48 20.7°C 54% 19.5 km/h N 1015.2 hPa 0 mm
28 mai 12:47 20.8°C 53% 21.1 km/h ENE 1015.2 hPa 0 mm
28 mai 12:46 21.0°C 53% 17.9 km/h NE 1015.2 hPa 0 mm
28 mai 12:45 21.2°C 53% 21.6 km/h ESE 1015.2 hPa 0 mm
28 mai 12:44 21.1°C 55% 19.0 km/h ENE 1015.2 hPa 0 mm
28 mai 12:43 21.0°C 54% 17.9 km/h NNE 1015.2 hPa 0 mm
28 mai 12:42 20.9°C 55% 16.4 km/h NE 1015.2 hPa 0 mm
28 mai 12:41 20.6°C 55% 10.6 km/h ENE 1015.2 hPa 0 mm
28 mai 12:40 20.4°C 54% 16.4 km/h NE 1015.2 hPa 0 mm
28 mai 12:39 20.7°C 54% 15.8 km/h NNE 1015.2 hPa 0 mm
28 mai 12:38 20.7°C 55% 22.2 km/h ENE 1015.2 hPa 0 mm
28 mai 12:37 20.7°C 55% 22.2 km/h ENE 1015.2 hPa 0 mm
28 mai 12:36 20.7°C 54% 19.5 km/h E 1015.2 hPa 0 mm
28 mai 12:35 20.5°C 55% 15.3 km/h E 1015.2 hPa 0 mm
28 mai 12:34 20.3°C 55% 14.8 km/h N 1015.2 hPa 0 mm
28 mai 12:33 20.4°C 55% 20.6 km/h NNE 1015.3 hPa 0 mm
28 mai 12:32 20.4°C 54% 16.9 km/h N 1015.3 hPa 0 mm
28 mai 12:31 20.6°C 55% 20.1 km/h NNE 1015.3 hPa 0 mm
28 mai 12:30 20.5°C 55% 21.1 km/h NE 1015.4 hPa 0 mm
28 mai 12:29 20.6°C 55% 16.4 km/h NE 1015.3 hPa 0 mm
28 mai 12:28 20.9°C 55% 22.2 km/h NNE 1015.3 hPa 0 mm
28 mai 12:27 20.9°C 55% 17.4 km/h N 1015.3 hPa 0 mm
28 mai 12:26 20.8°C 55% 17.9 km/h NNE 1015.3 hPa 0 mm
28 mai 12:25 20.7°C 56% 16.4 km/h ENE 1015.4 hPa 0 mm
28 mai 12:24 20.7°C 56% 12.7 km/h NNE 1015.4 hPa 0 mm
28 mai 12:23 20.6°C 57% 13.7 km/h NE 1015.3 hPa 0 mm
28 mai 12:22 20.4°C 56% 13.2 km/h E 1015.4 hPa 0 mm
28 mai 12:21 20.9°C 56% 19.5 km/h ENE 1015.4 hPa 0 mm
28 mai 12:20 21.2°C 56% 19.5 km/h NE 1015.4 hPa 0 mm
28 mai 12:19 21.1°C 57% 16.4 km/h E 1015.4 hPa 0 mm
28 mai 12:18 21.0°C 57% 15.3 km/h NE 1015.4 hPa 0 mm
28 mai 12:17 20.4°C 57% 13.7 km/h ENE 1015.4 hPa 0 mm
28 mai 12:16 20.5°C 57% 22.2 km/h SE 1015.4 hPa 0 mm
28 mai 12:15 20.4°C 57% 19.0 km/h N 1015.4 hPa 0 mm
28 mai 12:14 20.4°C 57% 17.9 km/h NE 1015.4 hPa 0 mm
28 mai 12:13 20.7°C 57% 20.1 km/h NE 1015.4 hPa 0 mm
28 mai 12:12 20.5°C 58% 11.6 km/h NNE 1015.5 hPa 0 mm
28 mai 12:11 20.2°C 59% 19.5 km/h ENE 1015.4 hPa 0 mm
28 mai 12:10 20.1°C 58% 15.3 km/h ENE 1015.5 hPa 0 mm
28 mai 12:09 20.0°C 58% 13.2 km/h NE 1015.4 hPa 0 mm
28 mai 12:08 20.1°C 57% 19.5 km/h NNE 1015.5 hPa 0 mm
28 mai 12:07 20.2°C 57% 16.4 km/h N 1015.5 hPa 0 mm
28 mai 12:06 20.1°C 58% 17.9 km/h E 1015.5 hPa 0 mm
28 mai 12:05 20.0°C 57% 14.8 km/h NE 1015.5 hPa 0 mm
28 mai 12:04 20.0°C 58% 19.0 km/h NE 1015.6 hPa 0 mm
28 mai 12:03 20.0°C 58% 21.6 km/h NE 1015.5 hPa 0 mm
28 mai 12:02 19.8°C 57% 14.8 km/h NNE 1015.5 hPa 0 mm
28 mai 12:01 19.9°C 58% 16.9 km/h N 1015.6 hPa 0 mm
28 mai 12:00 19.6°C 58% 17.4 km/h NE 1015.6 hPa 0 mm
28 mai 11:59 19.6°C 58% 16.9 km/h N 1015.7 hPa 0 mm
28 mai 11:58 19.4°C 58% 14.2 km/h NE 1015.7 hPa 0 mm
28 mai 11:57 19.7°C 58% 22.2 km/h NE 1015.7 hPa 0 mm
28 mai 11:56 20.1°C 58% 18.5 km/h NE 1015.7 hPa 0 mm
28 mai 11:55 20.0°C 58% 15.8 km/h NE 1015.6 hPa 0 mm
28 mai 11:54 20.1°C 57% 27.4 km/h SE 1015.6 hPa 0 mm
28 mai 11:53 20.1°C 58% 13.7 km/h ENE 1015.7 hPa 0 mm
28 mai 11:52 20.0°C 58% 14.8 km/h NE 1015.8 hPa 0 mm
28 mai 11:51 20.2°C 58% 19.0 km/h NNE 1015.8 hPa 0 mm
28 mai 11:50 20.2°C 59% 16.4 km/h NE 1015.8 hPa 0 mm
28 mai 11:49 20.1°C 58% 16.9 km/h E 1015.8 hPa 0 mm
28 mai 11:48 20.1°C 59% 20.1 km/h NE 1015.8 hPa 0 mm
28 mai 11:47 20.0°C 60% 18.5 km/h NNE 1015.8 hPa 0 mm
28 mai 11:46 19.8°C 59% 19.5 km/h NE 1015.8 hPa 0 mm
28 mai 11:45 19.6°C 59% 15.3 km/h NE 1015.8 hPa 0 mm
28 mai 11:44 19.6°C 58% 20.1 km/h NE 1015.8 hPa 0 mm
28 mai 11:43 19.7°C 59% 15.8 km/h NE 1015.8 hPa 0 mm
28 mai 11:42 19.7°C 59% 17.9 km/h NNE 1015.8 hPa 0 mm
28 mai 11:41 20.0°C 58% 14.8 km/h NE 1015.8 hPa 0 mm
28 mai 11:40 20.2°C 59% 19.0 km/h NE 1015.8 hPa 0 mm
28 mai 11:39 20.2°C 60% 16.4 km/h E 1015.9 hPa 0 mm
28 mai 11:38 20.2°C 60% 12.7 km/h NE 1015.9 hPa 0 mm
28 mai 11:37 19.8°C 60% 12.1 km/h E 1015.9 hPa 0 mm
28 mai 11:36 19.7°C 60% 17.9 km/h NE 1015.9 hPa 0 mm
28 mai 11:35 19.7°C 60% 19.0 km/h E 1015.9 hPa 0 mm
28 mai 11:34 19.6°C 60% 20.6 km/h E 1015.9 hPa 0 mm
28 mai 11:33 19.7°C 61% 16.9 km/h NE 1015.9 hPa 0 mm
28 mai 11:32 19.4°C 60% 10.6 km/h ENE 1016.0 hPa 0 mm
28 mai 11:31 19.5°C 59% 16.4 km/h NE 1016.0 hPa 0 mm
28 mai 11:30 19.7°C 60% 15.3 km/h ENE 1016.0 hPa 0 mm
28 mai 11:29 19.7°C 61% 14.8 km/h NNE 1016.0 hPa 0 mm
28 mai 11:28 19.3°C 61% 11.1 km/h NE 1016.0 hPa 0 mm
28 mai 11:27 19.1°C 61% 17.9 km/h NNE 1016.0 hPa 0 mm
28 mai 11:26 18.9°C 61% 15.8 km/h NE 1016.0 hPa 0 mm
28 mai 11:25 18.8°C 61% 17.4 km/h NE 1016.0 hPa 0 mm
28 mai 11:24 18.9°C 61% 18.5 km/h ENE 1016.1 hPa 0 mm
28 mai 11:23 19.0°C 61% 20.1 km/h NNE 1016.1 hPa 0 mm
28 mai 11:22 19.0°C 61% 13.2 km/h NE 1016.1 hPa 0 mm
28 mai 11:21 19.0°C 61% 14.2 km/h NNE 1016.1 hPa 0 mm
28 mai 11:20 19.2°C 61% 16.9 km/h ENE 1016.2 hPa 0 mm
28 mai 11:19 19.4°C 60% 17.4 km/h NNE 1016.2 hPa 0 mm
28 mai 11:18 19.8°C 60% 14.2 km/h NE 1016.2 hPa 0 mm
28 mai 11:17 19.8°C 61% 20.6 km/h NNE 1016.1 hPa 0 mm
28 mai 11:16 19.7°C 61% 7.9 km/h NE 1016.1 hPa 0 mm
28 mai 11:15 19.4°C 61% 20.6 km/h NNE 1016.1 hPa 0 mm
28 mai 11:14 19.3°C 62% 18.5 km/h NE 1016.1 hPa 0 mm
28 mai 11:13 19.2°C 62% 18.5 km/h NNE 1016.1 hPa 0 mm
28 mai 11:12 19.1°C 61% 13.7 km/h NNE 1016.2 hPa 0 mm
28 mai 11:11 19.1°C 61% 17.9 km/h NNE 1016.2 hPa 0 mm
28 mai 11:10 19.4°C 61% 16.4 km/h NNE 1016.2 hPa 0 mm
28 mai 11:09 19.6°C 60% 16.4 km/h NNE 1016.2 hPa 0 mm
28 mai 11:08 19.6°C 61% 12.7 km/h NNE 1016.2 hPa 0 mm
28 mai 11:07 19.5°C 61% 19.0 km/h NE 1016.2 hPa 0 mm
28 mai 11:06 19.4°C 62% 13.2 km/h ENE 1016.2 hPa 0 mm
28 mai 11:05 19.1°C 62% 14.2 km/h NNE 1016.2 hPa 0 mm
28 mai 11:04 19.0°C 63% 15.8 km/h NNE 1016.2 hPa 0 mm
28 mai 11:03 18.8°C 62% 17.9 km/h NE 1016.3 hPa 0 mm
28 mai 11:02 18.7°C 63% 17.4 km/h NNE 1016.3 hPa 0 mm
28 mai 11:01 18.6°C 63% 18.5 km/h NNE 1016.3 hPa 0 mm
28 mai 11:00 18.7°C 62% 16.9 km/h NNE 1016.3 hPa 0 mm
28 mai 10:59 18.9°C 63% 20.6 km/h NNE 1016.3 hPa 0 mm
28 mai 10:58 18.8°C 64% 19.5 km/h NNE 1016.3 hPa 0 mm
28 mai 10:57 18.6°C 64% 16.9 km/h NE 1016.3 hPa 0 mm
28 mai 10:56 18.4°C 64% 12.7 km/h ENE 1016.3 hPa 0 mm
28 mai 10:55 18.3°C 64% 15.3 km/h ENE 1016.3 hPa 0 mm
28 mai 10:54 18.3°C 64% 14.8 km/h NE 1016.4 hPa 0 mm
28 mai 10:53 18.3°C 64% 15.8 km/h ENE 1016.4 hPa 0 mm
28 mai 10:52 18.2°C 65% 13.7 km/h NNE 1016.4 hPa 0 mm
28 mai 10:51 18.1°C 65% 21.6 km/h NE 1016.4 hPa 0 mm
28 mai 10:50 18.1°C 64% 20.6 km/h NE 1016.4 hPa 0 mm
28 mai 10:49 18.1°C 64% 23.2 km/h NNE 1016.4 hPa 0 mm
28 mai 10:48 18.3°C 64% 21.1 km/h NE 1016.5 hPa 0 mm
28 mai 10:47 18.2°C 65% 13.2 km/h ENE 1016.5 hPa 0 mm
28 mai 10:46 18.3°C 65% 23.2 km/h NE 1016.5 hPa 0 mm
28 mai 10:45 18.2°C 65% 19.0 km/h NNE 1016.5 hPa 0 mm
28 mai 10:44 18.1°C 66% 18.5 km/h E 1016.5 hPa 0 mm
28 mai 10:43 18.1°C 65% 19.0 km/h NE 1016.5 hPa 0 mm
28 mai 10:42 18.1°C 65% 17.4 km/h NNE 1016.5 hPa 0 mm
28 mai 10:41 17.9°C 66% 19.0 km/h NNE 1016.5 hPa 0 mm
28 mai 10:40 17.8°C 66% 19.0 km/h N 1016.5 hPa 0 mm
28 mai 10:39 17.8°C 66% 13.7 km/h NNE 1016.5 hPa 0 mm
28 mai 10:38 17.8°C 66% 19.0 km/h NNE 1016.6 hPa 0 mm
28 mai 10:37 17.7°C 66% 22.2 km/h NE 1016.6 hPa 0 mm
28 mai 10:36 17.6°C 67% 13.2 km/h NNE 1016.6 hPa 0 mm
28 mai 10:35 17.5°C 66% 17.9 km/h NE 1016.6 hPa 0 mm
28 mai 10:34 17.5°C 67% 13.7 km/h NNE 1016.6 hPa 0 mm
28 mai 10:33 17.7°C 66% 17.4 km/h NE 1016.6 hPa 0 mm
28 mai 10:32 17.8°C 67% 13.7 km/h ENE 1016.6 hPa 0 mm
28 mai 10:31 17.7°C 67% 15.3 km/h NE 1016.6 hPa 0 mm
28 mai 10:30 17.7°C 67% 21.6 km/h NNE 1016.6 hPa 0 mm
28 mai 10:29 17.7°C 67% 19.5 km/h NNE 1016.6 hPa 0 mm
28 mai 10:28 17.8°C 67% 23.2 km/h NE 1016.6 hPa 0 mm
28 mai 10:27 18.0°C 67% 13.7 km/h NE 1016.6 hPa 0 mm
28 mai 10:26 17.9°C 68% 12.7 km/h E 1016.6 hPa 0 mm
28 mai 10:25 17.7°C 68% 13.2 km/h E 1016.7 hPa 0 mm
28 mai 10:24 17.6°C 68% 15.8 km/h NNE 1016.7 hPa 0 mm
28 mai 10:23 17.5°C 68% 19.0 km/h NE 1016.7 hPa 0 mm
28 mai 10:22 17.6°C 68% 19.5 km/h NNE 1016.6 hPa 0 mm
28 mai 10:21 17.5°C 68% 20.6 km/h NNE 1016.7 hPa 0 mm
28 mai 10:20 17.5°C 68% 15.3 km/h NNE 1016.7 hPa 0 mm
28 mai 10:19 17.5°C 68% 13.7 km/h ENE 1016.7 hPa 0 mm
28 mai 10:18 17.4°C 69% 12.1 km/h ENE 1016.7 hPa 0 mm
28 mai 10:17 17.2°C 69% 16.4 km/h NE 1016.7 hPa 0 mm
28 mai 10:16 17.2°C 69% 17.4 km/h NNE 1016.7 hPa 0 mm
28 mai 10:15 17.1°C 70% 19.0 km/h NNE 1016.7 hPa 0 mm
28 mai 10:14 17.1°C 69% 18.5 km/h NE 1016.7 hPa 0 mm
28 mai 10:13 17.1°C 70% 15.8 km/h NNE 1016.7 hPa 0 mm
28 mai 10:12 17.0°C 70% 14.2 km/h NNE 1016.7 hPa 0 mm
28 mai 10:11 17.1°C 70% 14.2 km/h NNE 1016.7 hPa 0 mm
28 mai 10:10 17.2°C 70% 16.4 km/h NNE 1016.7 hPa 0 mm
28 mai 10:09 17.1°C 71% 9.5 km/h ENE 1016.7 hPa 0 mm
28 mai 10:08 17.0°C 70% 14.2 km/h NNE 1016.7 hPa 0 mm
28 mai 10:07 17.0°C 70% 16.4 km/h NE 1016.7 hPa 0 mm
28 mai 10:06 17.1°C 70% 19.0 km/h NE 1016.7 hPa 0 mm
28 mai 10:05 17.0°C 71% 19.0 km/h ENE 1016.8 hPa 0 mm
28 mai 10:04 16.8°C 72% 14.2 km/h NE 1016.8 hPa 0 mm
28 mai 10:03 16.8°C 71% 16.9 km/h NE 1016.7 hPa 0 mm
28 mai 10:02 16.9°C 71% 16.4 km/h NNE 1016.8 hPa 0 mm
28 mai 10:01 16.8°C 71% 17.9 km/h NNE 1016.8 hPa 0 mm
28 mai 10:00 16.8°C 71% 20.1 km/h NE 1016.8 hPa 0 mm
28 mai 09:59 16.8°C 71% 20.1 km/h NNE 1016.8 hPa 0 mm
28 mai 09:58 16.7°C 71% 14.2 km/h NE 1016.8 hPa 0 mm
28 mai 09:57 16.9°C 71% 21.1 km/h ENE 1016.8 hPa 0 mm
28 mai 09:56 16.8°C 72% 16.4 km/h NNE 1016.8 hPa 0 mm
28 mai 09:55 16.9°C 71% 13.7 km/h NE 1016.9 hPa 0 mm
28 mai 09:54 16.9°C 72% 17.4 km/h NE 1016.8 hPa 0 mm
28 mai 09:53 17.0°C 72% 17.4 km/h N 1016.8 hPa 0 mm
28 mai 09:52 16.8°C 73% 15.3 km/h NNE 1016.8 hPa 0 mm
28 mai 09:51 16.7°C 73% 13.7 km/h NE 1016.8 hPa 0 mm
28 mai 09:50 16.8°C 72% 15.8 km/h NNE 1016.8 hPa 0 mm
28 mai 09:49 16.7°C 73% 11.6 km/h NE 1016.8 hPa 0 mm
28 mai 09:48 16.4°C 72% 12.1 km/h NNE 1016.9 hPa 0 mm
28 mai 09:47 16.5°C 73% 22.2 km/h NNE 1016.9 hPa 0 mm
28 mai 09:46 16.5°C 73% 13.2 km/h ENE 1016.9 hPa 0 mm
28 mai 09:45 16.4°C 73% 13.7 km/h NNE 1016.9 hPa 0 mm
28 mai 09:44 16.3°C 74% 13.2 km/h NNE 1016.9 hPa 0 mm
28 mai 09:43 16.2°C 74% 13.7 km/h NNE 1016.9 hPa 0 mm
28 mai 09:42 16.0°C 74% 13.2 km/h NNE 1016.9 hPa 0 mm
28 mai 09:41 15.9°C 74% 14.8 km/h NE 1017.0 hPa 0 mm
28 mai 09:40 16.0°C 74% 15.3 km/h NNE 1017.0 hPa 0 mm
28 mai 09:39 16.1°C 74% 16.9 km/h NNE 1016.9 hPa 0 mm
28 mai 09:38 16.2°C 74% 19.0 km/h NE 1016.9 hPa 0 mm
28 mai 09:37 16.2°C 74% 13.7 km/h NNE 1016.9 hPa 0 mm
28 mai 09:36 16.2°C 74% 16.9 km/h NNE 1017.0 hPa 0 mm
28 mai 09:35 16.3°C 74% 17.9 km/h NNE 1016.9 hPa 0 mm
28 mai 09:34 16.3°C 74% 15.8 km/h NNE 1016.9 hPa 0 mm
28 mai 09:33 16.4°C 74% 17.9 km/h NE 1016.9 hPa 0 mm
28 mai 09:32 16.4°C 73% 17.9 km/h N 1017.0 hPa 0 mm
28 mai 09:31 16.4°C 74% 21.1 km/h NE 1017.0 hPa 0 mm
28 mai 09:30 16.5°C 74% 19.5 km/h ENE 1016.9 hPa 0 mm
28 mai 09:29 16.4°C 75% 13.2 km/h ENE 1016.9 hPa 0 mm
28 mai 09:28 16.4°C 74% 17.4 km/h NNE 1016.9 hPa 0 mm
28 mai 09:27 16.6°C 75% 15.8 km/h N 1016.9 hPa 0 mm
28 mai 09:26 16.7°C 75% 19.0 km/h NNE 1017.0 hPa 0 mm
28 mai 09:25 16.6°C 75% 9.0 km/h NNE 1017.0 hPa 0 mm
28 mai 09:24 16.4°C 75% 12.1 km/h NNE 1017.0 hPa 0 mm
28 mai 09:23 16.3°C 76% 9.0 km/h NE 1017.0 hPa 0 mm
28 mai 09:22 16.3°C 76% 13.2 km/h ENE 1017.0 hPa 0 mm
28 mai 09:21 16.2°C 75% 17.9 km/h E 1017.1 hPa 0 mm
28 mai 09:20 16.2°C 76% 13.7 km/h NE 1017.0 hPa 0 mm
28 mai 09:19 16.1°C 76% 14.8 km/h NE 1017.0 hPa 0 mm
28 mai 09:18 16.0°C 76% 12.1 km/h NE 1017.1 hPa 0 mm
28 mai 09:17 15.8°C 76% 13.2 km/h E 1017.1 hPa 0 mm
28 mai 09:16 15.7°C 76% 17.4 km/h NNE 1017.1 hPa 0 mm
28 mai 09:15 15.6°C 76% 19.0 km/h NNE 1017.1 hPa 0 mm
28 mai 09:14 15.7°C 75% 17.9 km/h NE 1017.1 hPa 0 mm
28 mai 09:13 16.0°C 75% 17.9 km/h NNE 1017.2 hPa 0 mm
28 mai 09:12 16.1°C 75% 18.5 km/h NNE 1017.2 hPa 0 mm
28 mai 09:11 16.3°C 76% 19.5 km/h NNE 1017.1 hPa 0 mm
28 mai 09:10 16.1°C 77% 13.7 km/h NNE 1017.1 hPa 0 mm
28 mai 09:09 16.0°C 77% 10.6 km/h NNE 1017.2 hPa 0 mm
28 mai 09:08 15.9°C 77% 10.0 km/h NNE 1017.2 hPa 0 mm
28 mai 09:07 15.7°C 77% 14.8 km/h NE 1017.1 hPa 0 mm
28 mai 09:06 15.6°C 77% 11.6 km/h ENE 1017.2 hPa 0 mm
28 mai 09:05 15.6°C 77% 16.4 km/h ENE 1017.2 hPa 0 mm
28 mai 09:04 15.5°C 78% 19.5 km/h NNE 1017.2 hPa 0 mm
28 mai 09:03 15.5°C 77% 15.8 km/h NNE 1017.2 hPa 0 mm
28 mai 09:02 15.4°C 78% 21.6 km/h E 1017.1 hPa 0 mm
28 mai 09:01 15.4°C 78% 16.4 km/h NNE 1017.1 hPa 0 mm
28 mai 09:00 15.4°C 78% 17.9 km/h NE 1017.2 hPa 0 mm
28 mai 08:59 15.4°C 78% 12.1 km/h NE 1017.2 hPa 0 mm
28 mai 08:58 15.3°C 78% 14.8 km/h NNE 1017.2 hPa 0 mm
28 mai 08:57 15.4°C 79% 17.9 km/h NE 1017.3 hPa 0 mm
28 mai 08:56 15.4°C 79% 12.7 km/h NE 1017.3 hPa 0 mm
28 mai 08:55 15.2°C 79% 13.2 km/h NE 1017.3 hPa 0 mm
28 mai 08:54 15.2°C 79% 16.4 km/h NE 1017.3 hPa 0 mm
28 mai 08:53 15.2°C 79% 13.2 km/h NE 1017.3 hPa 0 mm
28 mai 08:52 15.2°C 80% 16.9 km/h ENE 1017.3 hPa 0 mm
28 mai 08:51 15.2°C 80% 7.4 km/h NE 1017.3 hPa 0 mm
28 mai 08:50 15.0°C 81% 10.6 km/h ENE 1017.4 hPa 0 mm
28 mai 08:49 14.9°C 81% 12.1 km/h NE 1017.4 hPa 0 mm
28 mai 08:48 14.8°C 81% 11.1 km/h NNE 1017.3 hPa 0 mm
28 mai 08:47 14.8°C 81% 15.8 km/h NE 1017.3 hPa 0 mm
28 mai 08:46 14.8°C 81% 12.7 km/h NE 1017.3 hPa 0 mm
28 mai 08:45 14.8°C 82% 8.4 km/h NNE 1017.3 hPa 0 mm
28 mai 08:44 14.7°C 81% 9.5 km/h NNE 1017.3 hPa 0 mm
28 mai 08:43 14.7°C 82% 12.1 km/h NE 1017.3 hPa 0 mm
28 mai 08:42 14.6°C 82% 11.6 km/h E 1017.3 hPa 0 mm
28 mai 08:41 14.6°C 82% 16.4 km/h NNE 1017.3 hPa 0 mm
28 mai 08:40 14.5°C 83% 13.2 km/h NE 1017.3 hPa 0 mm
28 mai 08:39 14.3°C 83% 9.5 km/h E 1017.4 hPa 0 mm
28 mai 08:38 14.2°C 83% 7.9 km/h NNE 1017.3 hPa 0 mm
28 mai 08:37 14.1°C 83% 13.7 km/h NE 1017.3 hPa 0 mm
28 mai 08:36 14.1°C 83% 11.6 km/h NE 1017.3 hPa 0 mm
28 mai 08:35 14.0°C 83% 13.7 km/h NNE 1017.4 hPa 0 mm
28 mai 08:34 14.1°C 83% 17.4 km/h NNE 1017.4 hPa 0 mm
28 mai 08:33 14.1°C 83% 11.6 km/h ENE 1017.4 hPa 0 mm
28 mai 08:32 14.2°C 83% 14.2 km/h NNE 1017.4 hPa 0 mm
28 mai 08:31 14.3°C 83% 15.8 km/h NNE 1017.4 hPa 0 mm
28 mai 08:30 14.2°C 83% 12.1 km/h NNE 1017.4 hPa 0 mm
28 mai 08:29 14.2°C 83% 12.1 km/h NE 1017.4 hPa 0 mm
28 mai 08:28 14.2°C 83% 7.9 km/h NE 1017.3 hPa 0 mm
28 mai 08:27 14.2°C 84% 8.4 km/h NNE 1017.4 hPa 0 mm
28 mai 08:26 14.2°C 84% 10.6 km/h NNE 1017.4 hPa 0 mm
28 mai 08:25 14.2°C 84% 11.1 km/h ENE 1017.4 hPa 0 mm
28 mai 08:24 14.0°C 84% 5.8 km/h N 1017.4 hPa 0 mm
28 mai 08:23 13.9°C 84% 6.9 km/h NNE 1017.4 hPa 0 mm
28 mai 08:22 13.8°C 84% 7.4 km/h NNE 1017.3 hPa 0 mm
28 mai 08:21 13.8°C 85% 10.6 km/h NNE 1017.4 hPa 0 mm
28 mai 08:20 13.7°C 85% 7.9 km/h ENE 1017.4 hPa 0 mm
28 mai 08:19 13.7°C 85% 10.6 km/h ENE 1017.4 hPa 0 mm
28 mai 08:18 13.7°C 85% 9.5 km/h NNE 1017.4 hPa 0 mm
28 mai 08:17 13.6°C 86% 9.5 km/h NNE 1017.4 hPa 0 mm
28 mai 08:16 13.4°C 86% 11.1 km/h NNE 1017.4 hPa 0 mm
28 mai 08:15 13.3°C 86% 10.6 km/h NNE 1017.4 hPa 0 mm
28 mai 08:14 13.2°C 86% 10.6 km/h NNE 1017.4 hPa 0 mm
28 mai 08:13 13.2°C 86% 10.6 km/h NE 1017.4 hPa 0 mm
28 mai 08:12 13.1°C 86% 9.5 km/h ENE 1017.4 hPa 0 mm
28 mai 08:11 13.1°C 87% 7.9 km/h ENE 1017.4 hPa 0 mm
28 mai 08:10 13.0°C 87% 9.0 km/h NE 1017.4 hPa 0 mm
28 mai 08:09 13.0°C 87% 9.0 km/h NE 1017.5 hPa 0 mm
28 mai 08:08 13.0°C 87% 11.1 km/h NNE 1017.4 hPa 0 mm
28 mai 08:07 12.9°C 87% 8.4 km/h NE 1017.4 hPa 0 mm
28 mai 08:06 12.9°C 87% 11.1 km/h NNE 1017.4 hPa 0 mm
28 mai 08:05 12.9°C 87% 10.6 km/h NE 1017.4 hPa 0 mm
28 mai 08:04 12.9°C 87% 11.1 km/h NNE 1017.4 hPa 0 mm
28 mai 08:03 12.9°C 87% 6.3 km/h ENE 1017.4 hPa 0 mm
28 mai 08:02 12.8°C 87% 11.6 km/h NNE 1017.4 hPa 0 mm
28 mai 08:01 12.8°C 87% 15.3 km/h NE 1017.4 hPa 0 mm
28 mai 08:00 12.8°C 87% 12.7 km/h NNE 1017.4 hPa 0 mm
28 mai 07:59 12.8°C 87% 9.0 km/h NE 1017.4 hPa 0 mm
28 mai 07:58 12.7°C 87% 11.6 km/h NE 1017.4 hPa 0 mm
28 mai 07:57 12.7°C 87% 11.1 km/h N 1017.4 hPa 0 mm
28 mai 07:56 12.8°C 87% 11.6 km/h ENE 1017.4 hPa 0 mm
28 mai 07:55 12.8°C 88% 12.1 km/h NE 1017.4 hPa 0 mm
28 mai 07:54 12.8°C 88% 6.9 km/h NE 1017.4 hPa 0 mm
28 mai 07:53 12.7°C 88% 9.0 km/h NE 1017.4 hPa 0 mm
28 mai 07:52 12.8°C 88% 9.5 km/h NNE 1017.4 hPa 0 mm
28 mai 07:51 12.8°C 88% 11.1 km/h NNE 1017.5 hPa 0 mm
28 mai 07:50 12.7°C 88% 9.5 km/h E 1017.5 hPa 0 mm
28 mai 07:49 12.7°C 88% 9.0 km/h NE 1017.4 hPa 0 mm
28 mai 07:48 12.8°C 88% 7.9 km/h E 1017.5 hPa 0 mm
28 mai 07:48 12.8°C 88% 11.1 km/h NNE 1017.5 hPa 0 mm
28 mai 07:47 12.8°C 88% 9.5 km/h NNE 1017.5 hPa 0 mm
28 mai 07:46 12.8°C 88% 7.4 km/h NE 1017.5 hPa 0 mm
28 mai 07:45 12.7°C 88% 7.4 km/h NNE 1017.5 hPa 0 mm
28 mai 07:44 12.7°C 88% 5.3 km/h NNE 1017.4 hPa 0 mm
28 mai 07:43 12.7°C 88% 6.9 km/h E 1017.4 hPa 0 mm
28 mai 07:42 12.7°C 88% 9.5 km/h NNE 1017.4 hPa 0 mm
28 mai 07:41 12.6°C 88% 10.6 km/h NNE 1017.4 hPa 0 mm
28 mai 07:40 12.7°C 88% 11.1 km/h NE 1017.5 hPa 0 mm
28 mai 07:39 12.7°C 88% 7.4 km/h ESE 1017.5 hPa 0 mm
28 mai 07:38 12.7°C 88% 6.9 km/h E 1017.5 hPa 0 mm
28 mai 07:37 12.7°C 88% 9.5 km/h NNE 1017.5 hPa 0 mm
28 mai 07:36 12.7°C 88% 5.3 km/h NE 1017.5 hPa 0 mm
28 mai 07:35 12.6°C 88% 4.2 km/h NE 1017.5 hPa 0 mm
28 mai 07:34 12.6°C 88% 7.9 km/h NE 1017.4 hPa 0 mm
28 mai 07:33 12.7°C 88% 7.4 km/h NE 1017.5 hPa 0 mm
28 mai 07:32 12.7°C 88% 9.5 km/h NNE 1017.5 hPa 0 mm
28 mai 07:31 12.7°C 89% 6.3 km/h NNE 1017.5 hPa 0 mm
28 mai 07:30 12.6°C 89% 7.4 km/h NNE 1017.5 hPa 0 mm
28 mai 07:29 12.6°C 89% 6.3 km/h N 1017.5 hPa 0 mm
28 mai 07:28 12.5°C 89% 4.2 km/h N 1017.5 hPa 0 mm
28 mai 07:27 12.5°C 89% 3.7 km/h NE 1017.5 hPa 0 mm
28 mai 07:26 12.5°C 89% 5.8 km/h NNE 1017.5 hPa 0 mm
28 mai 07:25 12.5°C 89% 5.8 km/h ENE 1017.5 hPa 0 mm
28 mai 07:24 12.4°C 89% 8.4 km/h NNE 1017.5 hPa 0 mm
28 mai 07:23 12.4°C 89% 6.9 km/h NE 1017.6 hPa 0 mm
28 mai 07:22 12.4°C 89% 5.8 km/h E 1017.5 hPa 0 mm
28 mai 07:21 12.4°C 89% 4.2 km/h NE 1017.5 hPa 0 mm
28 mai 07:20 12.3°C 89% 5.3 km/h ESE 1017.5 hPa 0 mm
28 mai 07:19 12.3°C 89% 6.9 km/h NNE 1017.5 hPa 0 mm
28 mai 07:18 12.3°C 89% 11.1 km/h NE 1017.5 hPa 0 mm
28 mai 07:17 12.3°C 89% 6.9 km/h NNE 1017.5 hPa 0 mm
28 mai 07:16 12.3°C 89% 7.9 km/h ENE 1017.5 hPa 0 mm
28 mai 07:15 12.2°C 89% 9.0 km/h ENE 1017.5 hPa 0 mm
28 mai 07:14 12.2°C 89% 7.9 km/h NNE 1017.5 hPa 0 mm
28 mai 07:13 12.2°C 89% 10.6 km/h ESE 1017.5 hPa 0 mm
28 mai 07:12 12.2°C 89% 11.6 km/h NNE 1017.5 hPa 0 mm
28 mai 07:11 12.2°C 89% 8.4 km/h NE 1017.5 hPa 0 mm
28 mai 07:10 12.2°C 89% 9.0 km/h NNE 1017.5 hPa 0 mm
28 mai 07:09 12.2°C 89% 5.3 km/h ESE 1017.5 hPa 0 mm
28 mai 07:08 12.2°C 89% 6.9 km/h NE 1017.5 hPa 0 mm
28 mai 07:07 12.2°C 90% 8.4 km/h NE 1017.5 hPa 0 mm
28 mai 07:06 12.2°C 90% 6.9 km/h ENE 1017.6 hPa 0 mm
28 mai 07:05 12.1°C 90% 6.3 km/h SSE 1017.5 hPa 0 mm
28 mai 07:04 12.1°C 90% 4.8 km/h E 1017.6 hPa 0 mm
28 mai 07:03 12.1°C 90% 5.8 km/h E 1017.6 hPa 0 mm
28 mai 07:02 12.1°C 90% 7.9 km/h E 1017.6 hPa 0 mm
28 mai 07:01 12.0°C 90% 9.0 km/h N 1017.6 hPa 0 mm
28 mai 07:00 12.0°C 90% 5.8 km/h E 1017.6 hPa 0 mm
28 mai 06:59 12.0°C 90% 8.4 km/h N 1017.6 hPa 0 mm
28 mai 06:58 11.9°C 90% 7.9 km/h NE 1017.6 hPa 0 mm
28 mai 06:57 11.9°C 90% 7.4 km/h S 1017.6 hPa 0 mm
28 mai 06:56 11.9°C 90% 4.2 km/h SE 1017.6 hPa 0 mm
28 mai 06:55 11.9°C 90% 7.4 km/h ENE 1017.6 hPa 0 mm
28 mai 06:54 11.8°C 90% 5.8 km/h NNE 1017.6 hPa 0 mm
28 mai 06:53 11.9°C 90% 4.2 km/h S 1017.6 hPa 0 mm
28 mai 06:52 11.8°C 90% 7.4 km/h ESE 1017.6 hPa 0 mm
28 mai 06:51 11.8°C 90% 9.0 km/h E 1017.6 hPa 0 mm
28 mai 06:50 11.8°C 90% 7.9 km/h S 1017.6 hPa 0 mm
28 mai 06:49 11.8°C 90% 7.9 km/h E 1017.5 hPa 0 mm
28 mai 06:48 11.8°C 90% 8.4 km/h E 1017.5 hPa 0 mm
28 mai 06:47 11.8°C 90% 8.4 km/h E 1017.6 hPa 0 mm
28 mai 06:46 11.8°C 90% 8.4 km/h E 1017.5 hPa 0 mm
28 mai 06:45 11.8°C 90% 7.4 km/h E 1017.5 hPa 0 mm
28 mai 06:44 11.8°C 90% 6.3 km/h SE 1017.6 hPa 0 mm
28 mai 06:43 11.7°C 90% 7.9 km/h SE 1017.6 hPa 0 mm
28 mai 06:42 11.7°C 90% 5.8 km/h ENE 1017.5 hPa 0 mm
28 mai 06:41 11.7°C 90% 6.3 km/h SSE 1017.5 hPa 0 mm
28 mai 06:40 11.7°C 90% 5.3 km/h SSE 1017.5 hPa 0 mm
28 mai 06:39 11.7°C 90% 5.8 km/h ESE 1017.5 hPa 0 mm
28 mai 06:38 11.8°C 90% 5.3 km/h O 1017.5 hPa 0 mm
28 mai 06:37 11.7°C 90% 7.9 km/h ENE 1017.5 hPa 0 mm
28 mai 06:36 11.7°C 90% 7.4 km/h ESE 1017.5 hPa 0 mm
28 mai 06:35 11.7°C 90% 6.3 km/h ESE 1017.5 hPa 0 mm
28 mai 06:34 11.7°C 90% 3.2 km/h ENE 1017.5 hPa 0 mm
28 mai 06:33 11.7°C 90% 6.9 km/h E 1017.5 hPa 0 mm
28 mai 06:32 11.7°C 90% 4.2 km/h ESE 1017.5 hPa 0 mm
28 mai 06:31 11.7°C 90% 5.8 km/h E 1017.6 hPa 0 mm
28 mai 06:30 11.7°C 90% 5.3 km/h E 1017.5 hPa 0 mm
28 mai 06:29 11.7°C 90% 7.9 km/h E 1017.5 hPa 0 mm
28 mai 06:28 11.7°C 90% 6.3 km/h SSE 1017.6 hPa 0 mm
28 mai 06:27 11.7°C 90% 8.4 km/h E 1017.6 hPa 0 mm
28 mai 06:26 11.7°C 90% 5.8 km/h SSE 1017.6 hPa 0 mm
28 mai 06:25 11.7°C 90% 6.3 km/h ESE 1017.6 hPa 0 mm
28 mai 06:24 11.7°C 90% 6.9 km/h SE 1017.5 hPa 0 mm
28 mai 06:23 11.7°C 90% 7.4 km/h ESE 1017.5 hPa 0 mm
28 mai 06:22 11.7°C 90% 7.9 km/h E 1017.6 hPa 0 mm
28 mai 06:21 11.7°C 90% 5.3 km/h E 1017.6 hPa 0 mm
28 mai 06:20 11.8°C 90% 6.3 km/h E 1017.6 hPa 0 mm
28 mai 06:19 11.7°C 90% 7.9 km/h E 1017.6 hPa 0 mm
28 mai 06:18 11.7°C 90% 7.9 km/h E 1017.6 hPa 0 mm
28 mai 06:17 11.7°C 90% 5.8 km/h ESE 1017.6 hPa 0 mm
28 mai 06:16 11.7°C 90% 4.2 km/h ENE 1017.6 hPa 0 mm
28 mai 06:15 11.7°C 90% 3.2 km/h ENE 1017.5 hPa 0 mm
28 mai 06:14 11.7°C 90% 4.2 km/h E 1017.6 hPa 0 mm
28 mai 06:13 11.7°C 90% 5.8 km/h S 1017.6 hPa 0 mm
28 mai 06:12 11.7°C 90% 4.8 km/h N 1017.6 hPa 0 mm
28 mai 06:11 11.7°C 90% 5.8 km/h E 1017.6 hPa 0 mm
28 mai 06:10 11.8°C 90% 4.2 km/h SE 1017.6 hPa 0 mm
28 mai 06:09 11.8°C 90% 10.0 km/h ENE 1017.5 hPa 0 mm
28 mai 06:08 11.8°C 89% 12.1 km/h NE 1017.6 hPa 0 mm
28 mai 06:07 11.8°C 90% 5.8 km/h SE 1017.5 hPa 0 mm
28 mai 06:06 11.8°C 89% 6.9 km/h ESE 1017.5 hPa 0 mm
28 mai 06:05 11.7°C 89% 5.8 km/h NE 1017.5 hPa 0 mm
28 mai 06:04 11.7°C 89% 7.4 km/h SSE 1017.5 hPa 0 mm
28 mai 06:03 11.8°C 89% 8.4 km/h SSE 1017.5 hPa 0 mm
28 mai 06:02 11.8°C 89% 4.8 km/h ENE 1017.5 hPa 0 mm
28 mai 06:01 11.8°C 89% 5.3 km/h S 1017.5 hPa 0 mm
28 mai 06:00 11.8°C 89% 6.3 km/h E 1017.5 hPa 0 mm
28 mai 05:59 11.8°C 89% 4.8 km/h NNE 1017.5 hPa 0 mm
28 mai 05:58 11.8°C 89% 3.7 km/h NNE 1017.4 hPa 0 mm
28 mai 05:57 11.8°C 89% 5.8 km/h NE 1017.5 hPa 0 mm
28 mai 05:56 11.8°C 89% 6.3 km/h NE 1017.5 hPa 0 mm
28 mai 05:55 11.8°C 89% 6.3 km/h NE 1017.4 hPa 0 mm
28 mai 05:54 11.8°C 89% 6.3 km/h NE 1017.4 hPa 0 mm
28 mai 05:53 11.8°C 89% 6.3 km/h E 1017.4 hPa 0 mm
28 mai 05:52 11.8°C 89% 7.9 km/h ENE 1017.5 hPa 0 mm
28 mai 05:51 11.8°C 89% 6.3 km/h NE 1017.5 hPa 0 mm
28 mai 05:50 11.8°C 89% 4.8 km/h E 1017.5 hPa 0 mm
28 mai 05:49 11.8°C 89% 1.1 km/h ENE 1017.5 hPa 0 mm
28 mai 05:48 11.8°C 89% 1.6 km/h NE 1017.5 hPa 0 mm
28 mai 05:47 11.8°C 89% 2.1 km/h NNE 1017.5 hPa 0 mm
28 mai 05:46 11.8°C 89% 5.8 km/h ENE 1017.4 hPa 0 mm
28 mai 05:45 11.7°C 89% 5.3 km/h S 1017.5 hPa 0 mm
28 mai 05:44 11.7°C 89% 4.2 km/h E 1017.5 hPa 0 mm
28 mai 05:43 11.7°C 89% 6.3 km/h E 1017.5 hPa 0 mm
28 mai 05:42 11.7°C 89% 2.6 km/h ESE 1017.5 hPa 0 mm
28 mai 05:41 11.7°C 89% 4.8 km/h ENE 1017.5 hPa 0 mm
28 mai 05:40 11.7°C 89% 4.2 km/h NE 1017.5 hPa 0 mm
28 mai 05:39 11.8°C 89% 4.2 km/h ENE 1017.5 hPa 0 mm
28 mai 05:38 11.8°C 89% 3.7 km/h ESE 1017.5 hPa 0 mm
28 mai 05:37 11.8°C 89% 5.3 km/h SSO 1017.5 hPa 0 mm
28 mai 05:36 11.8°C 89% 5.3 km/h SE 1017.5 hPa 0 mm
28 mai 05:35 11.8°C 89% 5.3 km/h S 1017.5 hPa 0 mm
28 mai 05:34 11.9°C 88% 5.3 km/h SSO 1017.5 hPa 0 mm
28 mai 05:33 11.9°C 88% 6.3 km/h SSO 1017.5 hPa 0 mm
28 mai 05:32 12.0°C 88% 4.2 km/h E 1017.5 hPa 0 mm
28 mai 05:31 12.0°C 88% 7.9 km/h E 1017.5 hPa 0 mm
28 mai 05:30 12.0°C 88% 7.9 km/h ESE 1017.5 hPa 0 mm
28 mai 05:29 12.0°C 88% 10.6 km/h NNE 1017.5 hPa 0 mm
28 mai 05:28 12.0°C 88% 5.8 km/h NE 1017.6 hPa 0 mm
28 mai 05:27 12.1°C 88% 4.2 km/h SE 1017.6 hPa 0 mm
28 mai 05:26 12.1°C 88% 6.9 km/h ESE 1017.5 hPa 0 mm
28 mai 05:25 12.0°C 88% 3.7 km/h ENE 1017.5 hPa 0 mm
28 mai 05:24 12.0°C 88% 4.2 km/h ENE 1017.5 hPa 0 mm
28 mai 05:23 12.1°C 88% 9.5 km/h S 1017.6 hPa 0 mm
28 mai 05:22 12.1°C 88% 7.4 km/h SSE 1017.5 hPa 0 mm
28 mai 05:21 12.1°C 88% 7.4 km/h NE 1017.6 hPa 0 mm
28 mai 05:20 12.1°C 88% 2.6 km/h N 1017.6 hPa 0 mm
28 mai 05:19 12.1°C 88% 9.5 km/h E 1017.6 hPa 0 mm
28 mai 05:18 12.1°C 88% 12.7 km/h SSE 1017.6 hPa 0 mm
28 mai 05:17 12.2°C 88% 4.2 km/h ENE 1017.6 hPa 0 mm
28 mai 05:16 12.2°C 88% 4.8 km/h ESE 1017.6 hPa 0 mm
28 mai 05:15 12.2°C 88% 8.4 km/h NNE 1017.6 hPa 0 mm
28 mai 05:14 12.2°C 88% 12.7 km/h N 1017.6 hPa 0 mm
28 mai 05:13 12.2°C 88% 9.0 km/h E 1017.6 hPa 0 mm
28 mai 05:12 12.2°C 88% 7.4 km/h SSE 1017.6 hPa 0 mm
28 mai 05:11 12.2°C 88% 10.0 km/h ENE 1017.6 hPa 0 mm
28 mai 05:10 12.2°C 88% 5.8 km/h ENE 1017.6 hPa 0 mm
28 mai 05:09 12.2°C 88% 5.8 km/h E 1017.6 hPa 0 mm
28 mai 05:08 12.3°C 88% 10.6 km/h E 1017.7 hPa 0 mm
28 mai 05:07 12.3°C 88% 10.6 km/h E 1017.6 hPa 0 mm
28 mai 05:06 12.3°C 88% 11.6 km/h NE 1017.6 hPa 0 mm
28 mai 05:05 12.2°C 88% 10.0 km/h SE 1017.7 hPa 0 mm
28 mai 05:04 12.2°C 87% 9.5 km/h SE 1017.7 hPa 0 mm
28 mai 05:03 12.3°C 87% 5.3 km/h SE 1017.7 hPa 0 mm
28 mai 05:02 12.3°C 87% 5.8 km/h SE 1017.6 hPa 0 mm
28 mai 05:01 12.3°C 87% 9.5 km/h E 1017.6 hPa 0 mm
28 mai 05:00 12.4°C 87% 10.0 km/h E 1017.7 hPa 0 mm
28 mai 04:59 12.4°C 87% 4.8 km/h NE 1017.7 hPa 0 mm
28 mai 04:58 12.4°C 87% 10.0 km/h ESE 1017.7 hPa 0 mm
28 mai 04:57 12.4°C 87% 12.7 km/h SSE 1017.7 hPa 0 mm
28 mai 04:56 12.5°C 87% 11.1 km/h ESE 1017.7 hPa 0 mm
28 mai 04:55 12.5°C 87% 8.4 km/h SE 1017.7 hPa 0 mm
28 mai 04:54 12.5°C 87% 11.1 km/h E 1017.7 hPa 0 mm
28 mai 04:53 12.4°C 87% 12.1 km/h ENE 1017.6 hPa 0 mm
28 mai 04:52 12.4°C 87% 12.1 km/h SE 1017.7 hPa 0 mm
28 mai 04:51 12.4°C 87% 10.0 km/h NE 1017.7 hPa 0 mm
28 mai 04:50 12.4°C 87% 12.1 km/h ENE 1017.6 hPa 0 mm
28 mai 04:49 12.4°C 87% 13.2 km/h ENE 1017.7 hPa 0 mm
28 mai 04:48 12.4°C 87% 14.2 km/h SE 1017.7 hPa 0 mm
28 mai 04:47 12.4°C 87% 9.5 km/h ESE 1017.8 hPa 0 mm
28 mai 04:46 12.4°C 87% 12.1 km/h SE 1017.8 hPa 0 mm
28 mai 04:45 12.4°C 87% 11.1 km/h SE 1017.8 hPa 0 mm
28 mai 04:44 12.4°C 87% 13.7 km/h SE 1017.8 hPa 0 mm
28 mai 04:43 12.4°C 88% 11.6 km/h ESE 1017.8 hPa 0 mm
28 mai 04:42 12.3°C 88% 12.1 km/h NNE 1017.8 hPa 0 mm
28 mai 04:41 12.3°C 88% 9.0 km/h E 1017.8 hPa 0 mm
28 mai 04:40 12.3°C 88% 9.5 km/h SSE 1017.8 hPa 0 mm
28 mai 04:39 12.3°C 88% 11.1 km/h SE 1017.8 hPa 0 mm
28 mai 04:38 12.2°C 88% 12.1 km/h ESE 1017.8 hPa 0 mm
28 mai 04:37 12.2°C 88% 10.6 km/h E 1017.8 hPa 0 mm
28 mai 04:36 12.2°C 88% 10.0 km/h E 1017.8 hPa 0 mm
28 mai 04:35 12.2°C 88% 9.5 km/h ESE 1017.8 hPa 0 mm
28 mai 04:34 12.2°C 88% 8.4 km/h E 1017.9 hPa 0 mm
28 mai 04:33 12.2°C 87% 12.7 km/h SE 1017.8 hPa 0 mm
28 mai 04:32 12.2°C 88% 10.6 km/h E 1017.9 hPa 0 mm
28 mai 04:31 12.2°C 87% 11.6 km/h SSE 1017.9 hPa 0 mm
28 mai 04:30 12.2°C 87% 6.9 km/h ESE 1017.8 hPa 0 mm
28 mai 04:29 12.3°C 87% 9.5 km/h SE 1017.8 hPa 0 mm
28 mai 04:28 12.3°C 87% 10.0 km/h NNE 1017.8 hPa 0 mm
28 mai 04:27 12.3°C 87% 9.0 km/h E 1017.9 hPa 0 mm
28 mai 04:26 12.4°C 87% 10.6 km/h E 1017.9 hPa 0 mm
28 mai 04:25 12.4°C 87% 9.5 km/h SSE 1018.0 hPa 0 mm
28 mai 04:24 12.4°C 87% 10.6 km/h SE 1017.9 hPa 0 mm
28 mai 04:23 12.4°C 87% 11.6 km/h SE 1018.0 hPa 0 mm
28 mai 04:22 12.4°C 87% 9.5 km/h E 1017.9 hPa 0 mm
28 mai 04:21 12.4°C 87% 9.0 km/h E 1018.0 hPa 0 mm
28 mai 04:20 12.5°C 87% 7.9 km/h SE 1018.0 hPa 0 mm
28 mai 04:19 12.5°C 87% 8.4 km/h SE 1018.0 hPa 0 mm
28 mai 04:18 12.5°C 86% 10.0 km/h SSE 1018.0 hPa 0 mm
28 mai 04:17 12.6°C 86% 8.4 km/h SSE 1018.0 hPa 0 mm
28 mai 04:16 12.6°C 86% 11.1 km/h ESE 1018.0 hPa 0 mm
28 mai 04:15 12.6°C 86% 11.1 km/h SSE 1018.0 hPa 0 mm
28 mai 04:14 12.7°C 86% 7.9 km/h E 1018.1 hPa 0 mm
28 mai 04:13 12.7°C 86% 9.0 km/h SE 1018.1 hPa 0 mm
28 mai 04:12 12.7°C 86% 10.6 km/h ENE 1018.1 hPa 0 mm
28 mai 04:11 12.8°C 86% 9.0 km/h SE 1018.1 hPa 0 mm
28 mai 04:10 12.8°C 86% 10.6 km/h NE 1018.1 hPa 0 mm
28 mai 04:09 12.8°C 86% 9.5 km/h NE 1018.1 hPa 0 mm
28 mai 04:08 12.8°C 86% 6.3 km/h ENE 1018.1 hPa 0 mm
28 mai 04:07 12.8°C 86% 9.0 km/h NE 1018.1 hPa 0 mm
28 mai 04:06 12.8°C 86% 6.9 km/h NE 1018.2 hPa 0 mm
28 mai 04:05 12.8°C 86% 11.6 km/h ENE 1018.2 hPa 0 mm
28 mai 04:04 12.8°C 86% 7.9 km/h NE 1018.1 hPa 0 mm
28 mai 04:03 12.8°C 86% 11.6 km/h N 1018.1 hPa 0 mm
28 mai 04:02 12.8°C 86% 9.0 km/h SE 1018.2 hPa 0 mm
28 mai 04:01 12.8°C 86% 8.4 km/h ENE 1018.2 hPa 0 mm
28 mai 04:00 12.8°C 86% 7.9 km/h E 1018.2 hPa 0 mm
28 mai 03:59 12.8°C 86% 7.4 km/h ENE 1018.2 hPa 0 mm
28 mai 03:58 12.9°C 85% 5.8 km/h E 1018.2 hPa 0 mm
28 mai 03:57 12.9°C 86% 7.4 km/h NE 1018.3 hPa 0 mm
28 mai 03:56 12.9°C 86% 11.6 km/h NE 1018.3 hPa 0 mm
28 mai 03:55 12.8°C 86% 10.6 km/h SE 1018.3 hPa 0 mm
28 mai 03:54 12.8°C 86% 11.1 km/h NNE 1018.4 hPa 0 mm
28 mai 03:53 12.9°C 86% 9.0 km/h NE 1018.4 hPa 0 mm
28 mai 03:52 12.9°C 86% 8.4 km/h NE 1018.4 hPa 0 mm
28 mai 03:51 12.8°C 86% 9.5 km/h E 1018.4 hPa 0 mm
28 mai 03:50 12.8°C 86% 10.6 km/h E 1018.4 hPa 0 mm
28 mai 03:49 12.8°C 86% 8.4 km/h E 1018.4 hPa 0 mm
28 mai 03:48 12.7°C 86% 7.9 km/h E 1018.5 hPa 0 mm
28 mai 03:47 12.8°C 86% 6.3 km/h E 1018.5 hPa 0 mm
28 mai 03:46 12.7°C 86% 6.3 km/h E 1018.5 hPa 0 mm
28 mai 03:45 12.8°C 86% 11.6 km/h E 1018.5 hPa 0 mm
28 mai 03:44 12.7°C 86% 9.5 km/h SSE 1018.5 hPa 0 mm
28 mai 03:43 12.8°C 86% 9.0 km/h E 1018.5 hPa 0 mm
28 mai 03:42 12.8°C 85% 10.6 km/h SE 1018.5 hPa 0 mm
28 mai 03:41 12.8°C 85% 8.4 km/h E 1018.5 hPa 0 mm
28 mai 03:40 12.8°C 85% 8.4 km/h ESE 1018.5 hPa 0 mm
28 mai 03:39 12.9°C 85% 6.3 km/h SE 1018.5 hPa 0 mm
28 mai 03:38 12.9°C 85% 9.0 km/h E 1018.6 hPa 0 mm
28 mai 03:37 12.9°C 85% 8.4 km/h ESE 1018.6 hPa 0 mm
28 mai 03:36 12.9°C 85% 8.4 km/h SE 1018.6 hPa 0 mm
28 mai 03:35 13.0°C 85% 6.9 km/h E 1018.6 hPa 0 mm
28 mai 03:34 13.0°C 85% 10.0 km/h E 1018.6 hPa 0 mm
28 mai 03:33 13.0°C 84% 4.8 km/h NE 1018.6 hPa 0 mm
28 mai 03:32 13.0°C 84% 6.3 km/h ENE 1018.6 hPa 0 mm
28 mai 03:31 13.1°C 84% 3.7 km/h E 1018.7 hPa 0 mm
28 mai 03:30 13.2°C 84% 6.9 km/h NE 1018.7 hPa 0 mm
28 mai 03:29 13.2°C 84% 9.0 km/h NE 1018.7 hPa 0 mm
28 mai 03:28 13.2°C 84% 5.3 km/h NE 1018.7 hPa 0 mm
28 mai 03:27 13.2°C 84% 7.4 km/h N 1018.8 hPa 0 mm
28 mai 03:26 13.2°C 84% 7.9 km/h NNE 1018.8 hPa 0 mm
28 mai 03:25 13.2°C 84% 5.3 km/h ENE 1018.8 hPa 0 mm
28 mai 03:24 13.3°C 84% 9.5 km/h NE 1018.8 hPa 0 mm
28 mai 03:23 13.3°C 84% 8.4 km/h NNE 1018.8 hPa 0 mm
28 mai 03:22 13.3°C 84% 9.0 km/h ENE 1018.8 hPa 0 mm
28 mai 03:21 13.3°C 83% 5.8 km/h ENE 1018.8 hPa 0 mm
28 mai 03:20 13.3°C 83% 9.5 km/h E 1018.8 hPa 0 mm
28 mai 03:19 13.4°C 83% 9.0 km/h ENE 1018.8 hPa 0 mm
28 mai 03:18 13.4°C 83% 5.8 km/h ENE 1018.8 hPa 0 mm
28 mai 03:17 13.3°C 83% 13.7 km/h NNE 1018.8 hPa 0 mm
28 mai 03:16 13.4°C 83% 9.5 km/h ENE 1018.8 hPa 0 mm
28 mai 03:15 13.4°C 83% 7.9 km/h E 1018.8 hPa 0 mm
28 mai 03:14 13.4°C 83% 9.5 km/h ENE 1018.8 hPa 0 mm
28 mai 03:13 13.4°C 83% 8.4 km/h NE 1018.8 hPa 0 mm
28 mai 03:12 13.4°C 83% 9.0 km/h E 1018.8 hPa 0 mm
28 mai 03:11 13.4°C 83% 10.0 km/h E 1018.9 hPa 0 mm
28 mai 03:10 13.4°C 83% 7.4 km/h NE 1019.0 hPa 0 mm
28 mai 03:09 13.5°C 83% 9.5 km/h NNE 1018.9 hPa 0 mm
28 mai 03:08 13.4°C 83% 9.5 km/h ENE 1018.9 hPa 0 mm
28 mai 03:07 13.5°C 83% 10.6 km/h NE 1018.9 hPa 0 mm
28 mai 03:06 13.5°C 83% 6.9 km/h NE 1018.9 hPa 0 mm
28 mai 03:05 13.5°C 82% 4.8 km/h NNE 1018.9 hPa 0 mm
28 mai 03:04 13.5°C 82% 10.0 km/h NNE 1018.9 hPa 0 mm
28 mai 03:03 13.6°C 82% 4.2 km/h NNE 1018.9 hPa 0 mm
28 mai 03:02 13.6°C 82% 8.4 km/h NNE 1019.0 hPa 0 mm
28 mai 03:01 13.6°C 82% 9.5 km/h ENE 1019.0 hPa 0 mm
28 mai 03:00 13.6°C 82% 6.9 km/h NE 1019.0 hPa 0 mm
28 mai 02:59 13.6°C 82% 12.7 km/h NE 1019.0 hPa 0 mm
28 mai 02:58 13.6°C 82% 9.5 km/h NE 1019.0 hPa 0 mm
28 mai 02:57 13.6°C 82% 7.4 km/h NE 1019.0 hPa 0 mm
28 mai 02:56 13.6°C 82% 10.0 km/h ENE 1018.9 hPa 0 mm
28 mai 02:55 13.7°C 82% 9.0 km/h NE 1019.0 hPa 0 mm
28 mai 02:54 13.7°C 81% 6.3 km/h NNE 1019.0 hPa 0 mm
28 mai 02:53 13.8°C 81% 6.3 km/h NNE 1019.0 hPa 0 mm
28 mai 02:52 13.8°C 81% 9.0 km/h N 1019.0 hPa 0 mm
28 mai 02:51 13.8°C 81% 9.0 km/h NNE 1019.0 hPa 0 mm
28 mai 02:50 13.8°C 81% 7.9 km/h N 1019.0 hPa 0 mm
28 mai 02:49 13.8°C 81% 10.0 km/h ENE 1019.0 hPa 0 mm
28 mai 02:48 13.8°C 81% 10.0 km/h NNE 1019.1 hPa 0 mm
28 mai 02:47 13.8°C 81% 8.4 km/h ENE 1019.1 hPa 0 mm
28 mai 02:46 13.8°C 81% 11.6 km/h N 1019.1 hPa 0 mm
28 mai 02:45 13.8°C 81% 7.9 km/h NNE 1019.1 hPa 0 mm
28 mai 02:44 13.8°C 81% 5.3 km/h NE 1019.2 hPa 0 mm
28 mai 02:43 13.8°C 81% 10.0 km/h NNE 1019.1 hPa 0 mm
28 mai 02:42 13.8°C 81% 8.4 km/h NE 1019.1 hPa 0 mm
28 mai 02:41 13.8°C 81% 7.9 km/h NNE 1019.1 hPa 0 mm
28 mai 02:40 13.8°C 81% 6.9 km/h NE 1019.1 hPa 0 mm
28 mai 02:39 13.8°C 81% 7.9 km/h NNE 1019.2 hPa 0 mm
28 mai 02:38 13.8°C 81% 9.0 km/h NE 1019.2 hPa 0 mm
28 mai 02:37 13.8°C 81% 6.3 km/h NNE 1019.2 hPa 0 mm
28 mai 02:36 13.8°C 81% 5.3 km/h NNE 1019.2 hPa 0 mm
28 mai 02:35 13.8°C 81% 7.9 km/h ENE 1019.2 hPa 0 mm
28 mai 02:34 13.8°C 81% 6.3 km/h NE 1019.2 hPa 0 mm
28 mai 02:33 13.8°C 81% 6.9 km/h NNE 1019.2 hPa 0 mm
28 mai 02:32 13.8°C 81% 9.5 km/h NE 1019.2 hPa 0 mm
28 mai 02:31 13.8°C 81% 6.3 km/h ENE 1019.2 hPa 0 mm
28 mai 02:30 13.9°C 81% 9.0 km/h NE 1019.2 hPa 0 mm
28 mai 02:29 13.9°C 81% 7.9 km/h NE 1019.2 hPa 0 mm
28 mai 02:28 13.8°C 81% 10.0 km/h E 1019.2 hPa 0 mm
28 mai 02:27 13.8°C 81% 7.9 km/h NNE 1019.2 hPa 0 mm
28 mai 02:26 13.8°C 81% 9.5 km/h E 1019.2 hPa 0 mm
28 mai 02:25 13.8°C 81% 9.0 km/h NE 1019.2 hPa 0 mm
28 mai 02:24 13.8°C 81% 7.4 km/h ESE 1019.2 hPa 0 mm
28 mai 02:23 13.8°C 81% 5.3 km/h N 1019.3 hPa 0 mm
28 mai 02:22 13.8°C 81% 6.9 km/h NNE 1019.3 hPa 0 mm
28 mai 02:21 13.9°C 81% 5.8 km/h NNE 1019.3 hPa 0 mm
28 mai 02:20 13.9°C 81% 10.0 km/h NE 1019.2 hPa 0 mm
28 mai 02:19 13.9°C 81% 7.4 km/h NE 1019.2 hPa 0 mm
28 mai 02:18 13.9°C 81% 8.4 km/h N 1019.3 hPa 0 mm
28 mai 02:17 13.9°C 81% 11.1 km/h NNE 1019.2 hPa 0 mm
28 mai 02:16 13.9°C 81% 6.9 km/h NNE 1019.2 hPa 0 mm
28 mai 02:15 13.9°C 81% 6.9 km/h NNE 1019.2 hPa 0 mm
28 mai 02:14 13.8°C 81% 9.5 km/h NNE 1019.3 hPa 0 mm
28 mai 02:13 13.9°C 81% 6.9 km/h E 1019.3 hPa 0 mm
28 mai 02:12 13.8°C 81% 5.3 km/h SE 1019.3 hPa 0 mm
28 mai 02:11 13.9°C 81% 6.3 km/h NE 1019.3 hPa 0 mm
28 mai 02:10 13.9°C 81% 5.3 km/h NNE 1019.3 hPa 0 mm
28 mai 02:09 13.9°C 81% 7.4 km/h E 1019.4 hPa 0 mm
28 mai 02:08 13.9°C 81% 4.8 km/h NNE 1019.4 hPa 0 mm
28 mai 02:07 14.0°C 81% 8.4 km/h NE 1019.4 hPa 0 mm
28 mai 02:06 14.0°C 81% 9.0 km/h E 1019.4 hPa 0 mm
28 mai 02:05 14.0°C 80% 8.4 km/h ENE 1019.4 hPa 0 mm
28 mai 02:04 14.0°C 80% 7.9 km/h NE 1019.4 hPa 0 mm
28 mai 02:03 14.1°C 80% 5.8 km/h NE 1019.4 hPa 0 mm
28 mai 02:02 14.1°C 80% 7.4 km/h NE 1019.5 hPa 0 mm
28 mai 02:01 14.0°C 80% 6.3 km/h SE 1019.5 hPa 0 mm
28 mai 02:00 14.1°C 80% 6.9 km/h NE 1019.4 hPa 0 mm
28 mai 01:59 14.1°C 80% 7.9 km/h NE 1019.4 hPa 0 mm
28 mai 01:58 14.1°C 80% 8.4 km/h NNE 1019.4 hPa 0 mm
28 mai 01:57 14.1°C 80% 4.8 km/h NE 1019.5 hPa 0 mm
28 mai 01:56 14.1°C 80% 7.4 km/h NE 1019.5 hPa 0 mm
28 mai 01:55 14.1°C 80% 5.8 km/h E 1019.5 hPa 0 mm
28 mai 01:54 14.1°C 80% 4.8 km/h ENE 1019.5 hPa 0 mm
28 mai 01:53 14.2°C 80% 6.9 km/h NNE 1019.5 hPa 0 mm
28 mai 01:52 14.2°C 80% 5.3 km/h NE 1019.5 hPa 0 mm
28 mai 01:51 14.2°C 80% 6.3 km/h NE 1019.6 hPa 0 mm
28 mai 01:50 14.1°C 80% 9.0 km/h ENE 1019.6 hPa 0 mm
28 mai 01:49 14.1°C 80% 8.4 km/h N 1019.6 hPa 0 mm
28 mai 01:48 14.1°C 80% 6.3 km/h ENE 1019.6 hPa 0 mm
28 mai 01:47 14.2°C 79% 6.3 km/h ESE 1019.6 hPa 0 mm
28 mai 01:46 14.3°C 79% 5.3 km/h NNE 1019.6 hPa 0 mm
28 mai 01:45 14.3°C 79% 3.2 km/h NNE 1019.6 hPa 0 mm
28 mai 01:44 14.3°C 79% 4.8 km/h NE 1019.7 hPa 0 mm
28 mai 01:43 14.3°C 79% 7.4 km/h ENE 1019.8 hPa 0 mm
28 mai 01:42 14.3°C 79% 7.4 km/h ENE 1019.7 hPa 0 mm
28 mai 01:41 14.3°C 79% 11.6 km/h NE 1019.7 hPa 0 mm
28 mai 01:40 14.4°C 79% 10.0 km/h NE 1019.7 hPa 0 mm
28 mai 01:39 14.3°C 79% 8.4 km/h NNE 1019.7 hPa 0 mm
28 mai 01:38 14.3°C 79% 6.3 km/h NNE 1019.7 hPa 0 mm
28 mai 01:37 14.3°C 79% 5.3 km/h ESE 1019.7 hPa 0 mm
28 mai 01:36 14.3°C 79% 5.3 km/h NNE 1019.7 hPa 0 mm
28 mai 01:35 14.3°C 79% 4.8 km/h NNE 1019.7 hPa 0 mm
28 mai 01:34 14.3°C 79% 5.8 km/h NNE 1019.7 hPa 0 mm
28 mai 01:33 14.3°C 79% 7.9 km/h ENE 1019.8 hPa 0 mm
28 mai 01:32 14.3°C 79% 7.4 km/h ESE 1019.8 hPa 0 mm
28 mai 01:31 14.4°C 79% 4.8 km/h NNE 1019.8 hPa 0 mm
28 mai 01:30 14.4°C 79% 9.0 km/h NNE 1019.8 hPa 0 mm
28 mai 01:29 14.4°C 79% 5.8 km/h N 1019.8 hPa 0 mm
28 mai 01:28 14.4°C 79% 3.7 km/h NNE 1019.8 hPa 0 mm
28 mai 01:27 14.4°C 79% 6.3 km/h ENE 1019.8 hPa 0 mm
28 mai 01:26 14.5°C 78% 6.3 km/h NNE 1019.8 hPa 0 mm
28 mai 01:25 14.5°C 78% 9.0 km/h NE 1019.9 hPa 0 mm
28 mai 01:24 14.5°C 78% 6.9 km/h NNE 1019.9 hPa 0 mm
28 mai 01:23 14.5°C 78% 7.9 km/h NE 1019.9 hPa 0 mm
28 mai 01:22 14.5°C 78% 5.3 km/h NE 1019.9 hPa 0 mm
28 mai 01:21 14.5°C 78% 4.8 km/h N 1020.0 hPa 0 mm
28 mai 01:20 14.5°C 79% 10.6 km/h NNE 1019.9 hPa 0 mm
28 mai 01:19 14.4°C 78% 9.5 km/h ESE 1019.9 hPa 0 mm
28 mai 01:18 14.5°C 78% 5.8 km/h SE 1019.9 hPa 0 mm
28 mai 01:17 14.5°C 78% 4.8 km/h E 1019.9 hPa 0 mm
28 mai 01:16 14.5°C 78% 5.8 km/h NE 1020.0 hPa 0 mm
28 mai 01:15 14.6°C 78% 10.0 km/h NE 1020.0 hPa 0 mm
28 mai 01:14 14.5°C 78% 10.0 km/h NE 1020.0 hPa 0 mm
28 mai 01:13 14.5°C 78% 7.9 km/h NNE 1019.9 hPa 0 mm
28 mai 01:12 14.5°C 78% 9.5 km/h NNE 1019.9 hPa 0 mm
28 mai 01:11 14.5°C 78% 6.3 km/h ENE 1020.0 hPa 0 mm
28 mai 01:10 14.5°C 78% 4.8 km/h ESE 1020.0 hPa 0 mm
28 mai 01:09 14.5°C 78% 6.9 km/h ENE 1019.9 hPa 0 mm
28 mai 01:08 14.5°C 78% 6.3 km/h ENE 1020.0 hPa 0 mm
28 mai 01:07 14.6°C 78% 5.3 km/h NE 1020.0 hPa 0 mm
28 mai 01:06 14.5°C 78% 5.3 km/h NE 1020.0 hPa 0 mm
28 mai 01:05 14.6°C 78% 6.3 km/h E 1020.1 hPa 0 mm
28 mai 01:04 14.6°C 78% 7.9 km/h NNE 1020.0 hPa 0 mm
28 mai 01:03 14.6°C 78% 10.6 km/h NNE 1020.1 hPa 0 mm
28 mai 01:02 14.7°C 78% 4.8 km/h NNE 1020.0 hPa 0 mm
28 mai 01:01 14.7°C 78% 7.4 km/h ENE 1020.0 hPa 0 mm
28 mai 01:00 14.6°C 78% 13.2 km/h NNE 1020.0 hPa 0 mm
28 mai 00:59 14.6°C 78% 7.4 km/h ESE 1020.1 hPa 0 mm
28 mai 00:58 14.7°C 77% 9.0 km/h NE 1020.0 hPa 0 mm
28 mai 00:57 14.7°C 77% 6.3 km/h ENE 1020.0 hPa 0 mm
28 mai 00:56 14.7°C 78% 12.1 km/h ENE 1020.0 hPa 0 mm
28 mai 00:55 14.7°C 77% 6.3 km/h NE 1020.0 hPa 0 mm
28 mai 00:54 14.6°C 78% 6.3 km/h E 1020.1 hPa 0 mm
28 mai 00:53 14.7°C 77% 7.4 km/h SE 1020.0 hPa 0 mm
28 mai 00:52 14.8°C 77% 8.4 km/h NE 1020.1 hPa 0 mm
28 mai 00:51 14.7°C 77% 9.5 km/h NE 1020.0 hPa 0 mm
28 mai 00:50 14.7°C 77% 5.8 km/h ENE 1020.1 hPa 0 mm
28 mai 00:49 14.8°C 77% 8.4 km/h NNE 1020.1 hPa 0 mm
28 mai 00:48 14.8°C 77% 4.2 km/h NE 1020.1 hPa 0 mm
28 mai 00:47 14.8°C 77% 7.4 km/h NNE 1020.1 hPa 0 mm
28 mai 00:46 14.8°C 77% 7.4 km/h N 1020.1 hPa 0 mm
28 mai 00:45 14.8°C 77% 8.4 km/h NNE 1020.1 hPa 0 mm
28 mai 00:44 14.8°C 77% 5.8 km/h E 1020.1 hPa 0 mm
28 mai 00:43 14.8°C 77% 8.4 km/h E 1020.2 hPa 0 mm
28 mai 00:42 14.7°C 77% 9.0 km/h E 1020.1 hPa 0 mm
28 mai 00:41 14.8°C 77% 6.9 km/h E 1020.2 hPa 0 mm
28 mai 00:40 14.8°C 77% 6.3 km/h ENE 1020.2 hPa 0 mm
28 mai 00:39 14.8°C 77% 7.9 km/h N 1020.2 hPa 0 mm
28 mai 00:38 14.9°C 77% 10.0 km/h NE 1020.1 hPa 0 mm
28 mai 00:37 14.9°C 77% 9.5 km/h NE 1020.2 hPa 0 mm
28 mai 00:36 14.9°C 77% 6.9 km/h E 1020.2 hPa 0 mm
28 mai 00:35 14.9°C 77% 10.0 km/h E 1020.2 hPa 0 mm
28 mai 00:34 14.9°C 77% 7.4 km/h NNE 1020.2 hPa 0 mm
28 mai 00:33 14.9°C 77% 8.4 km/h N 1020.2 hPa 0 mm
28 mai 00:32 14.9°C 77% 12.1 km/h NNE 1020.2 hPa 0 mm
28 mai 00:31 14.9°C 77% 6.3 km/h NNE 1020.2 hPa 0 mm
28 mai 00:30 14.9°C 77% 6.9 km/h NNE 1020.2 hPa 0 mm
28 mai 00:29 15.0°C 76% 4.8 km/h NNE 1020.2 hPa 0 mm
28 mai 00:28 15.0°C 76% 5.3 km/h NE 1020.2 hPa 0 mm
28 mai 00:27 15.0°C 76% 6.9 km/h NNE 1020.2 hPa 0 mm
28 mai 00:26 15.0°C 76% 7.9 km/h NNE 1020.2 hPa 0 mm
28 mai 00:25 15.1°C 76% 6.3 km/h NE 1020.2 hPa 0 mm
28 mai 00:24 15.1°C 76% 8.4 km/h NNE 1020.2 hPa 0 mm
28 mai 00:23 15.1°C 76% 9.5 km/h NE 1020.2 hPa 0 mm
28 mai 00:22 15.1°C 76% 7.4 km/h NNE 1020.1 hPa 0 mm
28 mai 00:21 15.1°C 76% 6.3 km/h NE 1020.2 hPa 0 mm
28 mai 00:20 15.1°C 76% 9.0 km/h N 1020.1 hPa 0 mm
28 mai 00:19 15.1°C 76% 6.3 km/h NNE 1020.2 hPa 0 mm
28 mai 00:18 15.1°C 76% 10.0 km/h NE 1020.2 hPa 0 mm
28 mai 00:17 15.1°C 76% 11.1 km/h NNE 1020.1 hPa 0 mm
28 mai 00:16 15.2°C 76% 6.9 km/h NNE 1020.1 hPa 0 mm
28 mai 00:15 15.2°C 76% 6.9 km/h NNE 1020.1 hPa 0 mm
28 mai 00:14 15.2°C 76% 7.4 km/h N 1020.1 hPa 0 mm
28 mai 00:13 15.2°C 76% 6.3 km/h NNE 1020.2 hPa 0 mm
28 mai 00:12 15.2°C 76% 7.4 km/h NNE 1020.2 hPa 0 mm
28 mai 00:11 15.2°C 76% 7.4 km/h NNE 1020.1 hPa 0 mm
28 mai 00:10 15.3°C 76% 7.4 km/h NNE 1020.1 hPa 0 mm
28 mai 00:09 15.3°C 75% 6.3 km/h NNE 1020.2 hPa 0 mm
28 mai 00:08 15.3°C 75% 9.0 km/h ESE 1020.1 hPa 0 mm
28 mai 00:07 15.4°C 75% 7.9 km/h ENE 1020.1 hPa 0 mm
28 mai 00:06 15.3°C 75% 10.0 km/h ENE 1020.1 hPa 0 mm
28 mai 00:05 15.4°C 75% 13.2 km/h NNE 1020.1 hPa 0 mm
28 mai 00:04 15.4°C 75% 7.9 km/h NE 1020.2 hPa 0 mm
28 mai 00:03 15.4°C 75% 10.0 km/h NNE 1020.2 hPa 0 mm
28 mai 00:02 15.4°C 75% 10.6 km/h NNE 1020.2 hPa 0 mm
28 mai 00:01 15.3°C 75% 12.7 km/h NE 1020.2 hPa 0 mm
28 mai 00:00 15.4°C 75% 7.9 km/h NE 1020.2 hPa 0 mm
27 mai 23:59 15.4°C 75% 7.4 km/h N 1020.2 hPa 0 mm
27 mai 23:58 15.4°C 75% 5.3 km/h ENE 1020.2 hPa 0 mm
27 mai 23:57 15.4°C 75% 6.3 km/h NE 1020.2 hPa 0 mm
27 mai 23:56 15.5°C 75% 7.4 km/h NE 1020.2 hPa 0 mm
27 mai 23:55 15.5°C 75% 7.9 km/h NNE 1020.2 hPa 0 mm
27 mai 23:54 15.5°C 75% 8.4 km/h ENE 1020.2 hPa 0 mm
27 mai 23:53 15.4°C 75% 11.1 km/h NE 1020.2 hPa 0 mm
27 mai 23:52 15.5°C 75% 7.9 km/h NE 1020.2 hPa 0 mm
27 mai 23:51 15.5°C 75% 11.1 km/h NNE 1020.2 hPa 0 mm
27 mai 23:50 15.5°C 75% 8.4 km/h ENE 1020.2 hPa 0 mm
27 mai 23:49 15.5°C 75% 10.0 km/h N 1020.2 hPa 0 mm
27 mai 23:48 15.6°C 75% 10.6 km/h NNE 1020.2 hPa 0 mm
27 mai 23:47 15.6°C 75% 7.4 km/h ENE 1020.2 hPa 0 mm
27 mai 23:46 15.6°C 75% 9.0 km/h NNE 1020.2 hPa 0 mm
27 mai 23:45 15.6°C 75% 8.4 km/h E 1020.2 hPa 0 mm
27 mai 23:44 15.6°C 75% 9.0 km/h NNE 1020.2 hPa 0 mm
27 mai 23:43 15.7°C 75% 9.0 km/h N 1020.2 hPa 0 mm
27 mai 23:42 15.7°C 75% 7.9 km/h NNE 1020.2 hPa 0 mm
27 mai 23:41 15.7°C 75% 7.9 km/h NNE 1020.2 hPa 0 mm
27 mai 23:40 15.7°C 74% 9.5 km/h E 1020.2 hPa 0 mm
27 mai 23:39 15.7°C 74% 10.0 km/h NNE 1020.2 hPa 0 mm
27 mai 23:38 15.8°C 74% 7.9 km/h NE 1020.2 hPa 0 mm
27 mai 23:37 15.8°C 74% 9.5 km/h ENE 1020.2 hPa 0 mm
27 mai 23:36 15.8°C 74% 12.7 km/h NNE 1020.2 hPa 0 mm
27 mai 23:35 15.8°C 74% 15.8 km/h N 1020.2 hPa 0 mm
27 mai 23:34 15.9°C 74% 6.9 km/h NE 1020.2 hPa 0 mm
27 mai 23:33 16.0°C 73% 7.4 km/h NE 1020.2 hPa 0 mm
27 mai 23:32 16.0°C 73% 6.9 km/h NNE 1020.1 hPa 0 mm
27 mai 23:31 16.0°C 73% 5.8 km/h N 1020.2 hPa 0 mm
27 mai 23:30 16.1°C 73% 5.3 km/h NNE 1020.2 hPa 0 mm
27 mai 23:29 16.1°C 73% 7.9 km/h NNE 1020.2 hPa 0 mm
27 mai 23:28 16.2°C 73% 9.0 km/h NNE 1020.2 hPa 0 mm
27 mai 23:27 16.2°C 72% 8.4 km/h NNE 1020.2 hPa 0 mm
27 mai 23:26 16.2°C 72% 10.6 km/h NNE 1020.2 hPa 0 mm
27 mai 23:25 16.3°C 72% 12.1 km/h NE 1020.2 hPa 0 mm
27 mai 23:24 16.4°C 72% 7.4 km/h NNE 1020.2 hPa 0 mm
27 mai 23:23 16.4°C 72% 8.4 km/h NE 1020.2 hPa 0 mm
27 mai 23:22 16.4°C 72% 18.5 km/h NNE 1020.2 hPa 0 mm
27 mai 23:21 16.4°C 72% 12.7 km/h NE 1020.2 hPa 0 mm
27 mai 23:20 16.4°C 72% 13.7 km/h ENE 1020.2 hPa 0 mm
27 mai 23:19 16.4°C 72% 22.2 km/h N 1020.2 hPa 0 mm
27 mai 23:18 16.4°C 72% 16.9 km/h NNE 1020.2 hPa 0 mm
27 mai 23:17 16.4°C 72% 13.2 km/h NNE 1020.2 hPa 0 mm
27 mai 23:16 16.4°C 72% 15.8 km/h NNE 1020.2 hPa 0 mm
27 mai 23:15 16.4°C 72% 12.1 km/h E 1020.1 hPa 0 mm
27 mai 23:14 16.5°C 72% 10.6 km/h SSE 1020.1 hPa 0 mm
27 mai 23:13 16.6°C 72% 22.2 km/h E 1020.1 hPa 0 mm
27 mai 23:12 16.6°C 72% 12.1 km/h NNE 1020.1 hPa 0 mm
27 mai 23:11 16.7°C 71% 6.9 km/h NNE 1020.1 hPa 0 mm
27 mai 23:10 16.7°C 71% 9.5 km/h NE 1020.1 hPa 0 mm
27 mai 23:09 16.8°C 71% 9.5 km/h ENE 1020.1 hPa 0 mm
27 mai 23:08 16.8°C 71% 10.6 km/h NNE 1020.1 hPa 0 mm
27 mai 23:07 16.8°C 71% 11.1 km/h NNE 1020.1 hPa 0 mm
27 mai 23:06 16.9°C 71% 9.5 km/h NNE 1020.1 hPa 0 mm
27 mai 23:05 16.9°C 71% 11.1 km/h NE 1020.0 hPa 0 mm
27 mai 23:04 16.9°C 70% 12.1 km/h NNE 1020.1 hPa 0 mm
27 mai 23:03 17.0°C 70% 12.7 km/h NNE 1020.0 hPa 0 mm